Wetterdaten: Montag, 29.01.2018
Datum Zeit Temp. Aussen Temp. o. S. +5cm Feuchte Auss BlattFeu 1 Luftdruck Regen Sonnenschein Regendauer Solar Windben Empfang
29.01.2018 00:00 10,0 C 9,4 C 8,3 C 93 % 0 lf 1029,1 hPa 0,0 l/m 0 min 0 min 0 W/m 29,3 km/h (5 Bft) 97,87 %
29.01.2018 00:02 10,0 C 9,4 C 8,3 C 93 % 0 lf 1029,1 hPa 0,0 l/m 0 min 0 min 0 W/m 22,5 km/h (4 Bft) 100,00 %
29.01.2018 00:04 9,9 C 9,4 C 8,3 C 93 % 0 lf 1029,1 hPa 0,0 l/m 0 min 0 min 0 W/m 33,8 km/h (5 Bft) 100,00 %
29.01.2018 00:08 9,9 C 9,4 C 8,3 C 94 % 0 lf 1029,1 hPa 0,0 l/m 0 min 0 min 0 W/m 38,3 km/h (5 Bft) 96,77 %
29.01.2018 00:10 9,9 C 9,4 C 8,3 C 94 % 0 lf 1029,0 hPa 0,0 l/m 0 min 0 min 0 W/m 20,3 km/h (4 Bft) 97,87 %
29.01.2018 00:12 9,9 C 9,4 C 8,3 C 94 % 0 lf 1029,0 hPa 0,0 l/m 0 min 0 min 0 W/m 38,3 km/h (5 Bft) 100,00 %
29.01.2018 00:14 9,8 C 9,4 C 8,3 C 94 % 0 lf 1029,0 hPa 0,0 l/m 0 min 0 min 0 W/m 33,8 km/h (5 Bft) 100,00 %
29.01.2018 00:16 9,8 C 9,4 C 8,3 C 94 % 1 lf 1029,0 hPa 0,0 l/m 0 min 0 min 0 W/m 29,3 km/h (5 Bft) 97,87 %
29.01.2018 00:18 9,8 C 9,4 C 8,3 C 94 % 0 lf 1029,0 hPa 0,0 l/m 0 min 0 min 0 W/m 27,0 km/h (4 Bft) 95,65 %
29.01.2018 00:20 9,8 C 9,4 C 8,3 C 94 % 0 lf 1029,0 hPa 0,0 l/m 0 min 0 min 0 W/m 27,0 km/h (4 Bft) 100,00 %
29.01.2018 00:22 9,8 C 9,4 C 8,3 C 94 % 0 lf 1029,0 hPa 0,0 l/m 0 min 0 min 0 W/m 24,8 km/h (4 Bft) 100,00 %
29.01.2018 00:24 9,8 C 9,4 C 8,3 C 94 % 0 lf 1029,0 hPa 0,0 l/m 0 min 0 min 0 W/m 29,3 km/h (5 Bft) 100,00 %
29.01.2018 00:26 9,8 C 9,4 C 8,3 C 94 % 0 lf 1029,0 hPa 0,0 l/m 0 min 0 min 0 W/m 24,8 km/h (4 Bft) 97,87 %
29.01.2018 00:28 9,8 C 9,4 C 8,3 C 94 % 0 lf 1029,2 hPa 0,0 l/m 0 min 0 min 0 W/m 36,0 km/h (5 Bft) 100,00 %
29.01.2018 00:30 9,7 C 9,4 C 8,3 C 94 % 0 lf 1029,1 hPa 0,0 l/m 0 min 0 min 0 W/m 33,8 km/h (5 Bft) 97,83 %
29.01.2018 00:32 9,7 C 9,4 C 8,3 C 94 % 0 lf 1029,0 hPa 0,0 l/m 0 min 0 min 0 W/m 33,8 km/h (5 Bft) 100,00 %
29.01.2018 00:34 9,7 C 9,4 C 8,3 C 95 % 0 lf 1029,0 hPa 0,0 l/m 0 min 0 min 0 W/m 27,0 km/h (4 Bft) 97,87 %
29.01.2018 00:36 9,7 C 9,4 C 8,3 C 95 % 1 lf 1029,0 hPa 0,0 l/m 0 min 0 min 0 W/m 33,8 km/h (5 Bft) 100,00 %
29.01.2018 00:38 9,7 C 9,4 C 8,3 C 95 % 1 lf 1029,0 hPa 0,0 l/m 0 min 0 min 0 W/m 42,8 km/h (6 Bft) 100,00 %
29.01.2018 00:40 9,7 C 9,4 C 8,3 C 95 % 1 lf 1029,0 hPa 0,0 l/m 0 min 0 min 0 W/m 22,5 km/h (4 Bft) 100,00 %
29.01.2018 00:42 9,7 C 9,4 C 8,3 C 95 % 1 lf 1029,0 hPa 0,0 l/m 0 min 0 min 0 W/m 33,8 km/h (5 Bft) 100,00 %
29.01.2018 00:44 9,7 C 9,4 C 8,3 C 95 % 1 lf 1028,9 hPa 0,0 l/m 0 min 0 min 0 W/m 31,5 km/h (5 Bft) 100,00 %
29.01.2018 00:46 9,7 C 9,4 C 8,3 C 95 % 1 lf 1029,0 hPa 0,0 l/m 0 min 0 min 0 W/m 20,3 km/h (4 Bft) 100,00 %
29.01.2018 00:48 9,7 C 9,4 C 8,3 C 95 % 1 lf 1029,0 hPa 0,0 l/m 0 min 0 min 0 W/m 24,8 km/h (4 Bft) 100,00 %
29.01.2018 00:50 9,7 C 9,4 C 8,3 C 95 % 0 lf 1028,9 hPa 0,0 l/m 0 min 0 min 0 W/m 31,5 km/h (5 Bft) 95,74 %
29.01.2018 00:52 9,6 C 9,4 C 8,3 C 95 % 0 lf 1028,8 hPa 0,0 l/m 0 min 0 min 0 W/m 31,5 km/h (5 Bft) 100,00 %
29.01.2018 00:54 9,6 C 9,4 C 8,3 C 95 % 0 lf 1028,9 hPa 0,0 l/m 0 min 0 min 0 W/m 27,0 km/h (4 Bft) 97,87 %
29.01.2018 00:56 9,6 C 9,4 C 8,3 C 95 % 0 lf 1028,8 hPa 0,0 l/m 0 min 0 min 0 W/m 24,8 km/h (4 Bft) 100,00 %
29.01.2018 00:58 9,6 C 9,4 C 8,3 C 95 % 0 lf 1028,8 hPa 0,0 l/m 0 min 0 min 0 W/m 40,6 km/h (6 Bft) 100,00 %
29.01.2018 01:00 9,6 C 9,4 C 8,3 C 95 % 0 lf 1028,8 hPa 0,0 l/m 0 min 0 min 0 W/m 27,0 km/h (4 Bft) 100,00 %
29.01.2018 01:02 9,6 C 9,4 C 8,3 C 95 % 0 lf 1028,8 hPa 0,0 l/m 0 min 0 min 0 W/m 27,0 km/h (4 Bft) 97,87 %
29.01.2018 01:04 9,6 C 9,4 C 8,3 C 95 % 0 lf 1028,8 hPa 0,0 l/m 0 min 0 min 0 W/m 31,5 km/h (5 Bft) 97,83 %
29.01.2018 01:06 9,6 C 9,4 C 8,3 C 95 % 0 lf 1028,8 hPa 0,0 l/m 0 min 0 min 0 W/m 40,6 km/h (6 Bft) 100,00 %
29.01.2018 01:08 9,6 C 9,4 C 8,3 C 95 % 0 lf 1028,8 hPa 0,0 l/m 0 min 0 min 0 W/m 20,3 km/h (4 Bft) 100,00 %
29.01.2018 01:10 9,6 C 9,4 C 8,3 C 95 % 0 lf 1028,8 hPa 0,0 l/m 0 min 0 min 0 W/m 22,5 km/h (4 Bft) 95,74 %
29.01.2018 01:12 9,6 C 9,4 C 8,3 C 95 % 0 lf 1028,7 hPa 0,0 l/m 0 min 0 min 0 W/m 22,5 km/h (4 Bft) 100,00 %
29.01.2018 01:14 9,6 C 9,4 C 8,3 C 95 % 0 lf 1028,6 hPa 0,0 l/m 0 min 0 min 0 W/m 27,0 km/h (4 Bft) 100,00 %
29.01.2018 01:16 9,6 C 9,4 C 8,3 C 95 % 0 lf 1028,7 hPa 0,0 l/m 0 min 0 min 0 W/m 24,8 km/h (4 Bft) 97,83 %
29.01.2018 01:18 9,6 C 9,4 C 8,3 C 95 % 0 lf 1028,5 hPa 0,0 l/m 0 min 0 min 0 W/m 33,8 km/h (5 Bft) 95,74 %
29.01.2018 01:20 9,6 C 9,4 C 8,3 C 95 % 0 lf 1028,5 hPa 0,0 l/m 0 min 0 min 0 W/m 29,3 km/h (5 Bft) 95,74 %
29.01.2018 01:22 9,6 C 9,4 C 8,3 C 95 % 0 lf 1028,6 hPa 0,0 l/m 0 min 0 min 0 W/m 42,8 km/h (6 Bft) 97,87 %
29.01.2018 01:24 9,6 C 9,4 C 8,3 C 95 % 0 lf 1028,6 hPa 0,0 l/m 0 min 0 min 0 W/m 29,3 km/h (5 Bft) 93,62 %
29.01.2018 01:26 9,7 C 9,4 C 8,3 C 95 % 0 lf 1028,6 hPa 0,0 l/m 0 min 0 min 0 W/m 29,3 km/h (5 Bft) 91,49 %
29.01.2018 01:28 9,7 C 9,4 C 8,3 C 95 % 0 lf 1028,6 hPa 0,0 l/m 0 min 0 min 0 W/m 33,8 km/h (5 Bft) 95,65 %
29.01.2018 01:30 9,7 C 9,4 C 8,3 C 95 % 0 lf 1028,5 hPa 0,0 l/m 0 min 0 min 0 W/m 36,0 km/h (5 Bft) 91,49 %
29.01.2018 01:32 9,7 C 9,4 C 8,3 C 95 % 0 lf 1028,5 hPa 0,0 l/m 0 min 0 min 0 W/m 27,0 km/h (4 Bft) 91,49 %
29.01.2018 01:34 9,7 C 9,4 C 8,3 C 95 % 0 lf 1028,5 hPa 0,0 l/m 0 min 0 min 0 W/m 29,3 km/h (5 Bft) 93,62 %
29.01.2018 01:36 9,7 C 9,4 C 8,3 C 95 % 0 lf 1028,5 hPa 0,0 l/m 0 min 0 min 0 W/m 29,3 km/h (5 Bft) 93,62 %
29.01.2018 01:38 9,7 C 9,4 C 8,3 C 95 % 0 lf 1028,5 hPa 0,0 l/m 0 min 0 min 0 W/m 31,5 km/h (5 Bft) 91,49 %
29.01.2018 01:40 9,7 C 9,4 C 8,3 C 95 % 0 lf 1028,5 hPa 0,0 l/m 0 min 0 min 0 W/m 31,5 km/h (5 Bft) 91,30 %
29.01.2018 01:42 9,7 C 9,4 C 8,3 C 95 % 0 lf 1028,5 hPa 0,0 l/m 0 min 0 min 0 W/m 31,5 km/h (5 Bft) 89,36 %
29.01.2018 01:44 9,7 C 9,4 C 8,3 C 95 % 0 lf 1028,5 hPa 0,0 l/m 0 min 0 min 0 W/m 27,0 km/h (4 Bft) 91,49 %
29.01.2018 01:46 9,7 C 9,4 C 8,3 C 95 % 0 lf 1028,6 hPa 0,0 l/m 0 min 0 min 0 W/m 31,5 km/h (5 Bft) 91,49 %
29.01.2018 01:48 9,7 C 9,4 C 8,3 C 95 % 0 lf 1028,6 hPa 0,0 l/m 0 min 0 min 0 W/m 38,3 km/h (5 Bft) 95,74 %
29.01.2018 01:50 9,7 C 9,4 C 8,9 C 95 % 0 lf 1028,5 hPa 0,0 l/m 0 min 0 min 0 W/m 40,6 km/h (6 Bft) 93,62 %
29.01.2018 01:52 9,7 C 9,4 C 8,9 C 94 % 0 lf 1028,5 hPa 0,0 l/m 0 min 0 min 0 W/m 40,6 km/h (6 Bft) 93,48 %
29.01.2018 01:54 9,7 C 9,4 C 8,3 C 94 % 0 lf 1028,5 hPa 0,0 l/m 0 min 0 min 0 W/m 33,8 km/h (5 Bft) 91,49 %
29.01.2018 01:56 9,7 C 9,4 C 8,9 C 94 % 0 lf 1028,5 hPa 0,0 l/m 0 min 0 min 0 W/m 38,3 km/h (5 Bft) 95,74 %
29.01.2018 01:58 9,7 C 9,4 C 8,3 C 94 % 0 lf 1028,4 hPa 0,0 l/m 0 min 0 min 0 W/m 27,0 km/h (4 Bft) 93,62 %
29.01.2018 02:00 9,7 C 9,4 C 8,3 C 94 % 0 lf 1028,4 hPa 0,0 l/m 0 min 0 min 0 W/m 40,6 km/h (6 Bft) 93,62 %
29.01.2018 02:02 9,7 C 9,4 C 8,3 C 94 % 0 lf 1028,4 hPa 0,0 l/m 0 min 0 min 0 W/m 31,5 km/h (5 Bft) 93,48 %
29.01.2018 02:04 9,7 C 9,4 C 8,3 C 94 % 0 lf 1028,5 hPa 0,0 l/m 0 min 0 min 0 W/m 45,1 km/h (6 Bft) 93,62 %
29.01.2018 02:06 9,7 C 9,4 C 8,9 C 94 % 0 lf 1028,5 hPa 0,0 l/m 0 min 0 min 0 W/m 38,3 km/h (5 Bft) 97,87 %
29.01.2018 02:08 9,7 C 9,4 C 8,3 C 94 % 0 lf 1028,4 hPa 0,0 l/m 0 min 0 min 0 W/m 33,8 km/h (5 Bft) 93,62 %
29.01.2018 02:10 9,8 C 9,4 C 8,3 C 94 % 0 lf 1028,4 hPa 0,0 l/m 0 min 0 min 0 W/m 36,0 km/h (5 Bft) 95,74 %
29.01.2018 02:12 9,8 C 9,4 C 8,3 C 94 % 0 lf 1028,4 hPa 0,0 l/m 0 min 0 min 0 W/m 47,3 km/h (6 Bft) 100,00 %
29.01.2018 02:14 9,8 C 9,4 C 8,3 C 94 % 0 lf 1028,4 hPa 0,0 l/m 0 min 0 min 0 W/m 31,5 km/h (5 Bft) 95,65 %
29.01.2018 02:16 9,8 C 9,4 C 8,3 C 94 % 0 lf 1028,3 hPa 0,0 l/m 0 min 0 min 0 W/m 38,3 km/h (5 Bft) 97,87 %
29.01.2018 02:18 9,8 C 9,4 C 8,3 C 94 % 0 lf 1028,3 hPa 0,0 l/m 0 min 0 min 0 W/m 29,3 km/h (5 Bft) 97,87 %
29.01.2018 02:20 9,8 C 9,4 C 8,3 C 94 % 0 lf 1028,3 hPa 0,0 l/m 0 min 0 min 0 W/m 31,5 km/h (5 Bft) 100,00 %
29.01.2018 02:22 9,8 C 9,4 C 8,3 C 94 % 0 lf 1028,3 hPa 0,0 l/m 0 min 0 min 0 W/m 31,5 km/h (5 Bft) 100,00 %
29.01.2018 02:24 9,8 C 9,4 C 8,3 C 94 % 0 lf 1028,3 hPa 0,0 l/m 0 min 0 min 0 W/m 29,3 km/h (5 Bft) 100,00 %
29.01.2018 02:26 9,8 C 9,4 C 8,3 C 94 % 0 lf 1028,1 hPa 0,0 l/m 0 min 0 min 0 W/m 31,5 km/h (5 Bft) 100,00 %
29.01.2018 02:28 9,8 C 9,4 C 8,3 C 94 % 0 lf 1028,3 hPa 0,0 l/m 0 min 0 min 0 W/m 33,8 km/h (5 Bft) 100,00 %
29.01.2018 02:30 9,8 C 9,4 C 8,3 C 94 % 0 lf 1028,2 hPa 0,0 l/m 0 min 0 min 0 W/m 27,0 km/h (4 Bft) 100,00 %
29.01.2018 02:32 9,7 C 9,4 C 8,3 C 94 % 0 lf 1028,2 hPa 0,0 l/m 0 min 0 min 0 W/m 38,3 km/h (5 Bft) 100,00 %
29.01.2018 02:34 9,8 C 9,4 C 8,3 C 94 % 1 lf 1028,2 hPa 0,0 l/m 0 min 0 min 0 W/m 36,0 km/h (5 Bft) 100,00 %
29.01.2018 02:36 9,8 C 9,4 C 8,3 C 94 % 0 lf 1028,2 hPa 0,0 l/m 0 min 0 min 0 W/m 42,8 km/h (6 Bft) 97,87 %
29.01.2018 02:38 9,8 C 9,4 C 8,3 C 94 % 1 lf 1028,3 hPa 0,0 l/m 0 min 0 min 0 W/m 42,8 km/h (6 Bft) 100,00 %
29.01.2018 02:40 9,8 C 9,4 C 8,3 C 94 % 1 lf 1028,1 hPa 0,0 l/m 0 min 0 min 0 W/m 36,0 km/h (5 Bft) 97,87 %
29.01.2018 02:42 9,7 C 9,4 C 8,3 C 94 % 0 lf 1028,2 hPa 0,0 l/m 0 min 0 min 0 W/m 29,3 km/h (5 Bft) 97,87 %
29.01.2018 02:44 9,7 C 9,4 C 8,3 C 94 % 0 lf 1028,3 hPa 0,0 l/m 0 min 0 min 0 W/m 36,0 km/h (5 Bft) 95,74 %
29.01.2018 02:46 9,7 C 9,4 C 8,3 C 94 % 0 lf 1028,3 hPa 0,0 l/m 0 min 0 min 0 W/m 31,5 km/h (5 Bft) 97,87 %
29.01.2018 02:48 9,7 C 9,4 C 8,3 C 94 % 0 lf 1028,3 hPa 0,0 l/m 0 min 0 min 0 W/m 31,5 km/h (5 Bft) 93,62 %
29.01.2018 02:50 9,7 C 9,4 C 8,3 C 94 % 0 lf 1028,2 hPa 0,0 l/m 0 min 0 min 0 W/m 33,8 km/h (5 Bft) 95,65 %
29.01.2018 02:52 9,7 C 9,4 C 8,3 C 94 % 1 lf 1028,3 hPa 0,0 l/m 0 min 0 min 0 W/m 33,8 km/h (5 Bft) 97,87 %
29.01.2018 02:54 9,7 C 9,4 C 8,3 C 94 % 2 lf 1028,2 hPa 0,0 l/m 0 min 0 min 0 W/m 29,3 km/h (5 Bft) 97,87 %
29.01.2018 02:56 9,7 C 9,4 C 8,3 C 94 % 1 lf 1028,2 hPa 0,0 l/m 0 min 0 min 0 W/m 31,5 km/h (5 Bft) 95,74 %
29.01.2018 02:58 9,7 C 9,4 C 8,3 C 94 % 1 lf 1028,1 hPa 0,0 l/m 0 min 0 min 0 W/m 33,8 km/h (5 Bft) 97,87 %
29.01.2018 03:00 9,7 C 9,4 C 8,3 C 94 % 1 lf 1028,2 hPa 0,0 l/m 0 min 0 min 0 W/m 22,5 km/h (4 Bft) 97,87 %
29.01.2018 03:02 9,7 C 9,4 C 8,3 C 94 % 1 lf 1028,2 hPa 0,0 l/m 0 min 0 min 0 W/m 24,8 km/h (4 Bft) 96,08 %
29.01.2018 03:04 9,7 C 9,4 C 8,3 C 94 % 1 lf 1028,2 hPa 0,0 l/m 0 min 0 min 0 W/m 49,6 km/h (6 Bft) 93,18 %
29.01.2018 03:06 9,7 C 9,4 C 8,3 C 94 % 1 lf 1028,1 hPa 0,0 l/m 0 min 0 min 0 W/m 40,6 km/h (6 Bft) 97,87 %
29.01.2018 03:08 9,7 C 9,4 C 8,3 C 95 % 0 lf 1028,0 hPa 0,0 l/m 0 min 0 min 0 W/m 33,8 km/h (5 Bft) 95,74 %
29.01.2018 03:10 9,7 C 9,4 C 8,3 C 95 % 1 lf 1028,0 hPa 0,0 l/m 0 min 0 min 0 W/m 31,5 km/h (5 Bft) 95,74 %
29.01.2018 03:12 9,7 C 9,4 C 8,3 C 95 % 1 lf 1028,1 hPa 0,0 l/m 0 min 0 min 0 W/m 45,1 km/h (6 Bft) 95,65 %
29.01.2018 03:14 9,7 C 9,4 C 8,3 C 95 % 0 lf 1028,0 hPa 0,0 l/m 0 min 0 min 0 W/m 49,6 km/h (6 Bft) 95,74 %
29.01.2018 03:16 9,7 C 9,4 C 8,3 C 95 % 1 lf 1027,9 hPa 0,0 l/m 0 min 0 min 0 W/m 36,0 km/h (5 Bft) 97,87 %
29.01.2018 03:18 9,7 C 9,4 C 8,3 C 95 % 1 lf 1027,9 hPa 0,0 l/m 0 min 0 min 0 W/m 38,3 km/h (5 Bft) 97,87 %
29.01.2018 03:20 9,7 C 9,4 C 8,3 C 95 % 1 lf 1027,9 hPa 0,0 l/m 0 min 0 min 0 W/m 36,0 km/h (5 Bft) 95,74 %
29.01.2018 03:22 9,7 C 9,4 C 8,3 C 95 % 1 lf 1027,9 hPa 0,0 l/m 0 min 0 min 0 W/m 40,6 km/h (6 Bft) 93,62 %
29.01.2018 03:24 9,7 C 9,4 C 8,3 C 95 % 1 lf 1027,9 hPa 0,0 l/m 0 min 0 min 0 W/m 38,3 km/h (5 Bft) 93,48 %
29.01.2018 03:26 9,7 C 9,4 C 8,3 C 95 % 1 lf 1027,8 hPa 0,0 l/m 0 min 0 min 0 W/m 36,0 km/h (5 Bft) 95,74 %
29.01.2018 03:28 9,7 C 9,4 C 8,3 C 95 % 1 lf 1027,8 hPa 0,0 l/m 0 min 0 min 0 W/m 40,6 km/h (6 Bft) 95,74 %
29.01.2018 03:30 9,7 C 9,4 C 8,3 C 95 % 2 lf 1027,7 hPa 0,0 l/m 0 min 0 min 0 W/m 27,0 km/h (4 Bft) 95,74 %
29.01.2018 03:32 9,7 C 9,4 C 8,3 C 95 % 2 lf 1027,6 hPa 0,0 l/m 0 min 0 min 0 W/m 40,6 km/h (6 Bft) 97,87 %
29.01.2018 03:34 9,7 C 9,4 C 8,3 C 95 % 2 lf 1027,7 hPa 0,0 l/m 0 min 0 min 0 W/m 36,0 km/h (5 Bft) 95,65 %
29.01.2018 03:36 9,6 C 9,4 C 8,3 C 95 % 1 lf 1027,7 hPa 0,0 l/m 0 min 0 min 0 W/m 33,8 km/h (5 Bft) 95,74 %
29.01.2018 03:38 9,6 C 9,4 C 8,3 C 95 % 0 lf 1027,7 hPa 0,0 l/m 0 min 0 min 0 W/m 42,8 km/h (6 Bft) 95,74 %
29.01.2018 03:40 9,7 C 9,4 C 8,3 C 95 % 0 lf 1027,5 hPa 0,0 l/m 0 min 0 min 0 W/m 49,6 km/h (6 Bft) 93,62 %
29.01.2018 03:42 9,7 C 9,4 C 8,3 C 95 % 0 lf 1027,8 hPa 0,0 l/m 0 min 0 min 0 W/m 36,0 km/h (5 Bft) 97,87 %
29.01.2018 03:44 9,7 C 9,4 C 8,3 C 95 % 0 lf 1027,4 hPa 0,0 l/m 0 min 0 min 0 W/m 38,3 km/h (5 Bft) 97,87 %
29.01.2018 03:46 9,7 C 9,4 C 8,3 C 95 % 0 lf 1027,5 hPa 0,0 l/m 0 min 0 min 0 W/m 38,3 km/h (5 Bft) 97,83 %
29.01.2018 03:48 9,7 C 9,4 C 8,3 C 95 % 0 lf 1027,4 hPa 0,0 l/m 0 min 0 min 0 W/m 40,6 km/h (6 Bft) 97,87 %
29.01.2018 03:50 9,7 C 9,4 C 8,3 C 95 % 0 lf 1027,4 hPa 0,0 l/m 0 min 0 min 0 W/m 29,3 km/h (5 Bft) 97,87 %
29.01.2018 03:52 9,7 C 9,4 C 8,3 C 95 % 0 lf 1027,4 hPa 0,0 l/m 0 min 0 min 0 W/m 38,3 km/h (5 Bft) 97,87 %
29.01.2018 03:54 9,7 C 9,4 C 8,3 C 95 % 0 lf 1027,3 hPa 0,0 l/m 0 min 0 min 0 W/m 20,3 km/h (4 Bft) 97,87 %
29.01.2018 03:56 9,7 C 9,4 C 8,3 C 95 % 0 lf 1027,2 hPa 0,0 l/m 0 min 0 min 0 W/m 24,8 km/h (4 Bft) 97,87 %
29.01.2018 03:58 9,7 C 9,4 C 8,3 C 95 % 0 lf 1027,3 hPa 0,0 l/m 0 min 0 min 0 W/m 24,8 km/h (4 Bft) 100,00 %
29.01.2018 04:00 9,7 C 9,4 C 8,3 C 95 % 0 lf 1027,2 hPa 0,0 l/m 0 min 0 min 0 W/m 40,6 km/h (6 Bft) 100,00 %
29.01.2018 04:05 9,7 C 9,4 C 8,3 C 95 % 0 lf 1027,1 hPa 0,0 l/m 0 min 0 min 0 W/m 38,3 km/h (5 Bft) 92,73 %
29.01.2018 04:06 9,7 C 9,4 C 8,3 C 95 % 0 lf 1027,1 hPa 0,0 l/m 0 min 0 min 0 W/m 24,8 km/h (4 Bft) 87,50 %
29.01.2018 04:08 9,7 C 9,4 C 8,3 C 95 % 0 lf 1027,0 hPa 0,0 l/m 0 min 0 min 0 W/m 38,3 km/h (5 Bft) 97,87 %
29.01.2018 04:10 9,7 C 9,4 C 8,3 C 95 % 0 lf 1027,1 hPa 0,0 l/m 0 min 0 min 0 W/m 24,8 km/h (4 Bft) 97,83 %
29.01.2018 04:12 9,7 C 9,4 C 8,3 C 94 % 0 lf 1027,0 hPa 0,0 l/m 0 min 0 min 0 W/m 31,5 km/h (5 Bft) 97,87 %
29.01.2018 04:14 9,7 C 9,4 C 8,3 C 94 % 0 lf 1027,1 hPa 0,0 l/m 0 min 0 min 0 W/m 36,0 km/h (5 Bft) 95,74 %
29.01.2018 04:16 9,7 C 9,4 C 8,9 C 94 % 0 lf 1027,0 hPa 0,0 l/m 0 min 0 min 0 W/m 36,0 km/h (5 Bft) 95,74 %
29.01.2018 04:18 9,7 C 9,4 C 8,9 C 94 % 0 lf 1027,0 hPa 0,0 l/m 0 min 0 min 0 W/m 31,5 km/h (5 Bft) 93,62 %
29.01.2018 04:20 9,7 C 9,4 C 8,9 C 94 % 0 lf 1027,0 hPa 0,0 l/m 0 min 0 min 0 W/m 29,3 km/h (5 Bft) 95,74 %
29.01.2018 04:22 9,7 C 10,0 C 8,9 C 94 % 0 lf 1027,1 hPa 0,0 l/m 0 min 0 min 0 W/m 22,5 km/h (4 Bft) 93,48 %
29.01.2018 04:24 9,7 C 10,0 C 8,9 C 94 % 0 lf 1027,0 hPa 0,0 l/m 0 min 0 min 0 W/m 31,5 km/h (5 Bft) 93,62 %
29.01.2018 04:26 9,7 C 10,0 C 8,9 C 94 % 0 lf 1027,0 hPa 0,0 l/m 0 min 0 min 0 W/m 31,5 km/h (5 Bft) 93,62 %
29.01.2018 04:28 9,8 C 10,0 C 8,9 C 94 % 0 lf 1027,0 hPa 0,0 l/m 0 min 0 min 0 W/m 36,0 km/h (5 Bft) 93,62 %
29.01.2018 04:30 9,8 C 10,0 C 8,9 C 94 % 0 lf 1026,9 hPa 0,0 l/m 0 min 0 min 0 W/m 36,0 km/h (5 Bft) 95,74 %
29.01.2018 04:32 9,8 C 10,0 C 8,9 C 94 % 0 lf 1026,9 hPa 0,0 l/m 0 min 0 min 0 W/m 36,0 km/h (5 Bft) 95,74 %
29.01.2018 04:34 9,8 C 10,0 C 8,9 C 94 % 0 lf 1026,9 hPa 0,0 l/m 0 min 0 min 0 W/m 29,3 km/h (5 Bft) 95,65 %
29.01.2018 04:36 9,8 C 10,0 C 8,9 C 94 % 0 lf 1026,9 hPa 0,0 l/m 0 min 0 min 0 W/m 31,5 km/h (5 Bft) 89,36 %
29.01.2018 04:38 9,8 C 10,0 C 8,9 C 94 % 0 lf 1026,9 hPa 0,0 l/m 0 min 0 min 0 W/m 38,3 km/h (5 Bft) 93,62 %
29.01.2018 04:40 9,8 C 10,0 C 8,9 C 94 % 0 lf 1027,0 hPa 0,0 l/m 0 min 0 min 0 W/m 38,3 km/h (5 Bft) 95,74 %
29.01.2018 04:42 9,8 C 10,0 C 8,9 C 94 % 0 lf 1027,0 hPa 0,0 l/m 0 min 0 min 0 W/m 38,3 km/h (5 Bft) 95,74 %
29.01.2018 04:44 9,8 C 10,0 C 8,9 C 93 % 0 lf 1027,0 hPa 0,0 l/m 0 min 0 min 0 W/m 40,6 km/h (6 Bft) 95,74 %
29.01.2018 04:46 9,9 C 10,0 C 8,9 C 93 % 0 lf 1026,9 hPa 0,0 l/m 0 min 0 min 0 W/m 27,0 km/h (4 Bft) 93,48 %
29.01.2018 04:48 9,9 C 10,0 C 8,9 C 93 % 0 lf 1026,9 hPa 0,0 l/m 0 min 0 min 0 W/m 22,5 km/h (4 Bft) 95,74 %
29.01.2018 04:50 9,9 C 10,0 C 8,9 C 93 % 0 lf 1026,9 hPa 0,0 l/m 0 min 0 min 0 W/m 36,0 km/h (5 Bft) 95,74 %
29.01.2018 04:52 9,9 C 10,0 C 8,9 C 93 % 0 lf 1026,9 hPa 0,0 l/m 0 min 0 min 0 W/m 31,5 km/h (5 Bft) 97,87 %
29.01.2018 04:54 9,9 C 10,0 C 8,9 C 93 % 0 lf 1026,9 hPa 0,0 l/m 0 min 0 min 0 W/m 40,6 km/h (6 Bft) 95,74 %
29.01.2018 04:56 9,9 C 10,0 C 8,9 C 92 % 0 lf 1026,9 hPa 0,0 l/m 0 min 0 min 0 W/m 33,8 km/h (5 Bft) 95,74 %
29.01.2018 04:58 9,9 C 10,0 C 8,9 C 92 % 0 lf 1026,9 hPa 0,0 l/m 0 min 0 min 0 W/m 40,6 km/h (6 Bft) 100,00 %
29.01.2018 05:00 9,9 C 10,0 C 8,9 C 92 % 0 lf 1026,8 hPa 0,0 l/m 0 min 0 min 0 W/m 31,5 km/h (5 Bft) 97,87 %
29.01.2018 05:02 9,9 C 10,0 C 8,9 C 92 % 0 lf 1026,9 hPa 0,0 l/m 0 min 0 min 0 W/m 40,6 km/h (6 Bft) 93,62 %
29.01.2018 05:04 9,9 C 10,0 C 8,9 C 92 % 0 lf 1027,0 hPa 0,0 l/m 0 min 0 min 0 W/m 36,0 km/h (5 Bft) 97,87 %
29.01.2018 05:06 9,9 C 10,0 C 8,9 C 92 % 0 lf 1026,8 hPa 0,0 l/m 0 min 0 min 0 W/m 27,0 km/h (4 Bft) 100,00 %
29.01.2018 05:08 9,9 C 10,0 C 8,9 C 92 % 0 lf 1026,8 hPa 0,0 l/m 0 min 0 min 0 W/m 40,6 km/h (6 Bft) 100,00 %
29.01.2018 05:10 9,9 C 10,0 C 8,9 C 92 % 0 lf 1026,9 hPa 0,0 l/m 0 min 0 min 0 W/m 29,3 km/h (5 Bft) 97,87 %
29.01.2018 05:12 9,9 C 10,0 C 8,9 C 92 % 0 lf 1026,8 hPa 0,0 l/m 0 min 0 min 0 W/m 33,8 km/h (5 Bft) 97,87 %
29.01.2018 05:14 9,9 C 10,0 C 8,9 C 91 % 0 lf 1026,9 hPa 0,0 l/m 0 min 0 min 0 W/m 33,8 km/h (5 Bft) 97,87 %
29.01.2018 05:16 10,0 C 10,0 C 8,9 C 91 % 0 lf 1027,0 hPa 0,0 l/m 0 min 0 min 0 W/m 36,0 km/h (5 Bft) 93,62 %
29.01.2018 05:18 10,0 C 10,0 C 8,9 C 91 % 0 lf 1027,0 hPa 0,0 l/m 0 min 0 min 0 W/m 45,1 km/h (6 Bft) 97,87 %
29.01.2018 05:20 10,0 C 10,0 C 8,9 C 91 % 0 lf 1027,0 hPa 0,0 l/m 0 min 0 min 0 W/m 38,3 km/h (5 Bft) 95,65 %
29.01.2018 05:22 10,0 C 10,0 C 8,9 C 91 % 0 lf 1026,9 hPa 0,0 l/m 0 min 0 min 0 W/m 36,0 km/h (5 Bft) 97,87 %
29.01.2018 05:24 10,0 C 10,0 C 8,9 C 91 % 0 lf 1026,9 hPa 0,0 l/m 0 min 0 min 0 W/m 31,5 km/h (5 Bft) 97,87 %
29.01.2018 05:26 10,0 C 10,0 C 8,9 C 91 % 0 lf 1026,9 hPa 0,0 l/m 0 min 0 min 0 W/m 36,0 km/h (5 Bft) 97,87 %
29.01.2018 05:28 10,0 C 10,0 C 8,9 C 91 % 0 lf 1026,9 hPa 0,0 l/m 0 min 0 min 0 W/m 42,8 km/h (6 Bft) 97,87 %
29.01.2018 05:30 10,0 C 10,0 C 8,9 C 91 % 0 lf 1026,9 hPa 0,0 l/m 0 min 0 min 0 W/m 33,8 km/h (5 Bft) 95,74 %
29.01.2018 05:32 10,0 C 10,0 C 8,9 C 91 % 0 lf 1026,9 hPa 0,0 l/m 0 min 0 min 0 W/m 38,3 km/h (5 Bft) 95,65 %
29.01.2018 05:34 10,1 C 10,0 C 8,9 C 91 % 0 lf 1026,7 hPa 0,0 l/m 0 min 0 min 0 W/m 29,3 km/h (5 Bft) 97,87 %
29.01.2018 05:35 10,1 C 10,0 C 8,9 C 91 % 0 lf 1026,7 hPa 0,0 l/m 0 min 0 min 0 W/m 38,3 km/h (5 Bft) 99,12 %
29.01.2018 05:42 10,1 C 10,0 C 8,9 C 91 % 0 lf 1026,7 hPa 0,0 l/m 0 min 0 min 0 W/m 27,0 km/h (4 Bft) 4,76 %
29.01.2018 05:44 10,1 C 10,0 C 8,9 C 90 % 0 lf 1026,7 hPa 0,0 l/m 0 min 0 min 0 W/m 24,8 km/h (4 Bft) 96,88 %
29.01.2018 05:46 10,1 C 10,0 C 8,9 C 90 % 0 lf 1026,7 hPa 0,0 l/m 0 min 0 min 0 W/m 31,5 km/h (5 Bft) 95,74 %
29.01.2018 05:48 10,1 C 10,0 C 8,9 C 90 % 0 lf 1026,7 hPa 0,0 l/m 0 min 0 min 0 W/m 33,8 km/h (5 Bft) 100,00 %
29.01.2018 05:50 10,1 C 10,0 C 8,9 C 90 % 0 lf 1026,6 hPa 0,0 l/m 0 min 0 min 0 W/m 49,6 km/h (6 Bft) 98,28 %
29.01.2018 05:52 10,1 C 10,0 C 8,9 C 90 % 0 lf 1026,6 hPa 0,0 l/m 0 min 0 min 0 W/m 42,8 km/h (6 Bft) 97,22 %
29.01.2018 05:54 10,1 C 10,0 C 8,9 C 90 % 0 lf 1026,5 hPa 0,0 l/m 0 min 0 min 0 W/m 24,8 km/h (4 Bft) 97,83 %
29.01.2018 05:56 10,1 C 10,0 C 8,9 C 90 % 0 lf 1026,5 hPa 0,0 l/m 0 min 0 min 0 W/m 33,8 km/h (5 Bft) 100,00 %
29.01.2018 05:58 10,1 C 10,0 C 8,9 C 90 % 0 lf 1026,5 hPa 0,0 l/m 0 min 0 min 0 W/m 49,6 km/h (6 Bft) 100,00 %
29.01.2018 06:00 10,1 C 10,0 C 8,9 C 90 % 0 lf 1026,5 hPa 0,0 l/m 0 min 0 min 0 W/m 42,8 km/h (6 Bft) 97,87 %
29.01.2018 06:02 10,1 C 10,0 C 8,9 C 90 % 0 lf 1026,6 hPa 0,0 l/m 0 min 0 min 0 W/m 36,0 km/h (5 Bft) 100,00 %
29.01.2018 06:04 10,1 C 10,0 C 8,9 C 89 % 0 lf 1026,5 hPa 0,0 l/m 0 min 0 min 0 W/m 36,0 km/h (5 Bft) 100,00 %
29.01.2018 06:06 10,1 C 10,0 C 8,9 C 89 % 0 lf 1026,7 hPa 0,0 l/m 0 min 0 min 0 W/m 54,1 km/h (7 Bft) 100,00 %
29.01.2018 06:08 10,1 C 10,0 C 8,9 C 89 % 0 lf 1026,6 hPa 0,0 l/m 0 min 0 min 0 W/m 40,6 km/h (6 Bft) 97,87 %
29.01.2018 06:10 10,2 C 10,0 C 8,9 C 89 % 0 lf 1026,6 hPa 0,0 l/m 0 min 0 min 0 W/m 31,5 km/h (5 Bft) 100,00 %
29.01.2018 06:12 10,2 C 10,0 C 8,9 C 89 % 0 lf 1026,7 hPa 0,0 l/m 0 min 0 min 0 W/m 38,3 km/h (5 Bft) 95,74 %
29.01.2018 06:14 10,2 C 10,0 C 8,9 C 89 % 0 lf 1026,6 hPa 0,0 l/m 0 min 0 min 0 W/m 40,6 km/h (6 Bft) 100,00 %
29.01.2018 06:16 10,2 C 10,0 C 8,9 C 89 % 0 lf 1026,7 hPa 0,0 l/m 0 min 0 min 0 W/m 38,3 km/h (5 Bft) 100,00 %
29.01.2018 06:18 10,2 C 10,0 C 8,9 C 89 % 0 lf 1026,6 hPa 0,0 l/m 0 min 0 min 0 W/m 40,6 km/h (6 Bft) 100,00 %
29.01.2018 06:20 10,2 C 10,0 C 8,9 C 89 % 0 lf 1026,7 hPa 0,0 l/m 0 min 0 min 0 W/m 29,3 km/h (5 Bft) 96,61 %
29.01.2018 06:22 10,2 C 10,0 C 8,9 C 89 % 0 lf 1026,7 hPa 0,0 l/m 0 min 0 min 0 W/m 36,0 km/h (5 Bft) 94,29 %
29.01.2018 06:24 10,2 C 10,0 C 8,9 C 89 % 0 lf 1026,8 hPa 0,0 l/m 0 min 0 min 0 W/m 38,3 km/h (5 Bft) 97,87 %
29.01.2018 06:26 10,2 C 10,0 C 8,9 C 89 % 0 lf 1026,8 hPa 0,0 l/m 0 min 0 min 0 W/m 27,0 km/h (4 Bft) 97,87 %
29.01.2018 06:28 10,2 C 10,0 C 8,9 C 89 % 0 lf 1026,7 hPa 0,0 l/m 0 min 0 min 0 W/m 36,0 km/h (5 Bft) 97,83 %
29.01.2018 06:30 10,2 C 10,0 C 8,9 C 89 % 0 lf 1026,7 hPa 0,0 l/m 0 min 0 min 0 W/m 40,6 km/h (6 Bft) 97,87 %
29.01.2018 06:32 10,1 C 10,0 C 8,9 C 89 % 0 lf 1026,8 hPa 0,0 l/m 0 min 0 min 0 W/m 38,3 km/h (5 Bft) 97,87 %
29.01.2018 06:34 10,1 C 10,0 C 8,9 C 89 % 0 lf 1026,7 hPa 0,0 l/m 0 min 0 min 0 W/m 36,0 km/h (5 Bft) 97,87 %
29.01.2018 06:36 10,1 C 10,0 C 8,9 C 89 % 0 lf 1026,7 hPa 0,0 l/m 0 min 0 min 0 W/m 29,3 km/h (5 Bft) 97,87 %
29.01.2018 06:38 10,1 C 10,0 C 8,9 C 89 % 0 lf 1026,6 hPa 0,0 l/m 0 min 0 min 0 W/m 38,3 km/h (5 Bft) 95,74 %
29.01.2018 06:40 10,1 C 10,0 C 8,9 C 88 % 0 lf 1026,7 hPa 0,0 l/m 0 min 0 min 0 W/m 31,5 km/h (5 Bft) 97,83 %
29.01.2018 06:42 10,1 C 10,0 C 8,9 C 88 % 0 lf 1026,7 hPa 0,0 l/m 0 min 0 min 0 W/m 33,8 km/h (5 Bft) 95,74 %
29.01.2018 06:44 10,1 C 10,0 C 8,9 C 88 % 0 lf 1026,6 hPa 0,0 l/m 0 min 0 min 0 W/m 36,0 km/h (5 Bft) 95,74 %
29.01.2018 06:46 10,1 C 10,0 C 8,9 C 88 % 0 lf 1026,6 hPa 0,0 l/m 0 min 0 min 0 W/m 29,3 km/h (5 Bft) 97,87 %
29.01.2018 06:48 10,1 C 10,0 C 8,9 C 88 % 0 lf 1026,6 hPa 0,0 l/m 0 min 0 min 0 W/m 49,6 km/h (6 Bft) 97,87 %
29.01.2018 06:50 10,1 C 10,0 C 8,9 C 88 % 0 lf 1026,6 hPa 0,0 l/m 0 min 0 min 0 W/m 40,6 km/h (6 Bft) 96,55 %
29.01.2018 06:52 10,1 C 10,0 C 8,9 C 88 % 0 lf 1026,5 hPa 0,0 l/m 0 min 0 min 0 W/m 45,1 km/h (6 Bft) 91,43 %
29.01.2018 06:54 10,1 C 10,0 C 8,9 C 88 % 0 lf 1026,5 hPa 0,0 l/m 0 min 0 min 0 W/m 45,1 km/h (6 Bft) 95,74 %
29.01.2018 06:56 10,1 C 10,0 C 8,9 C 87 % 0 lf 1026,6 hPa 0,0 l/m 0 min 0 min 0 W/m 45,1 km/h (6 Bft) 91,49 %
29.01.2018 06:58 10,2 C 10,0 C 8,9 C 87 % 0 lf 1026,5 hPa 0,0 l/m 0 min 0 min 0 W/m 36,0 km/h (5 Bft) 93,62 %
29.01.2018 07:00 10,2 C 10,0 C 8,9 C 87 % 0 lf 1026,6 hPa 0,0 l/m 0 min 0 min 0 W/m 38,3 km/h (5 Bft) 93,62 %
29.01.2018 07:02 10,2 C 10,0 C 8,9 C 87 % 0 lf 1026,6 hPa 0,0 l/m 0 min 0 min 0 W/m 38,3 km/h (5 Bft) 93,62 %
29.01.2018 07:04 10,2 C 10,0 C 8,9 C 87 % 0 lf 1026,7 hPa 0,0 l/m 0 min 0 min 0 W/m 40,6 km/h (6 Bft) 93,48 %
29.01.2018 07:06 10,2 C 10,0 C 8,9 C 87 % 0 lf 1026,5 hPa 0,0 l/m 0 min 0 min 0 W/m 49,6 km/h (6 Bft) 89,36 %
29.01.2018 07:08 10,2 C 10,0 C 8,9 C 87 % 0 lf 1026,5 hPa 0,0 l/m 0 min 0 min 0 W/m 33,8 km/h (5 Bft) 93,62 %
29.01.2018 07:10 10,2 C 10,0 C 8,9 C 87 % 0 lf 1026,5 hPa 0,0 l/m 0 min 0 min 0 W/m 38,3 km/h (5 Bft) 91,49 %
29.01.2018 07:12 10,2 C 10,0 C 8,9 C 87 % 0 lf 1026,5 hPa 0,0 l/m 0 min 0 min 0 W/m 42,8 km/h (6 Bft) 89,36 %
29.01.2018 07:14 10,2 C 10,0 C 8,9 C 87 % 0 lf 1026,5 hPa 0,0 l/m 0 min 0 min 0 W/m 36,0 km/h (5 Bft) 93,62 %
29.01.2018 07:16 10,2 C 10,0 C 8,9 C 87 % 0 lf 1026,5 hPa 0,0 l/m 0 min 0 min 0 W/m 40,6 km/h (6 Bft) 91,30 %
29.01.2018 07:18 10,2 C 10,0 C 8,9 C 87 % 0 lf 1026,5 hPa 0,0 l/m 0 min 0 min 0 W/m 33,8 km/h (5 Bft) 91,49 %
29.01.2018 07:20 10,2 C 10,0 C 8,9 C 87 % 0 lf 1026,5 hPa 0,0 l/m 0 min 0 min 0 W/m 33,8 km/h (5 Bft) 91,53 %
29.01.2018 07:22 10,1 C 10,0 C 8,9 C 87 % 0 lf 1026,5 hPa 0,0 l/m 0 min 0 min 0 W/m 33,8 km/h (5 Bft) 91,43 %
29.01.2018 07:24 10,1 C 10,0 C 8,9 C 87 % 0 lf 1026,6 hPa 0,0 l/m 0 min 0 min 0 W/m 40,6 km/h (6 Bft) 93,62 %
29.01.2018 07:26 10,1 C 10,0 C 8,9 C 87 % 0 lf 1026,6 hPa 0,0 l/m 0 min 0 min 0 W/m 47,3 km/h (6 Bft) 93,62 %
29.01.2018 07:28 10,1 C 10,0 C 8,9 C 87 % 0 lf 1026,6 hPa 0,0 l/m 0 min 0 min 0 W/m 36,0 km/h (5 Bft) 91,30 %
29.01.2018 07:30 10,1 C 10,0 C 8,9 C 87 % 0 lf 1026,5 hPa 0,0 l/m 0 min 0 min 0 W/m 31,5 km/h (5 Bft) 89,36 %
29.01.2018 07:32 10,1 C 10,0 C 8,9 C 87 % 0 lf 1026,5 hPa 0,0 l/m 0 min 0 min 0 W/m 29,3 km/h (5 Bft) 91,49 %
29.01.2018 07:34 10,1 C 10,0 C 8,9 C 87 % 0 lf 1026,5 hPa 0,0 l/m 0 min 0 min 0 W/m 31,5 km/h (5 Bft) 93,62 %
29.01.2018 07:36 10,1 C 10,0 C 8,9 C 87 % 0 lf 1026,5 hPa 0,0 l/m 0 min 0 min 0 W/m 47,3 km/h (6 Bft) 91,49 %
29.01.2018 07:38 10,1 C 10,0 C 8,9 C 87 % 0 lf 1026,5 hPa 0,0 l/m 0 min 0 min 0 W/m 40,6 km/h (6 Bft) 95,65 %
29.01.2018 07:40 10,1 C 10,0 C 8,9 C 87 % 0 lf 1026,6 hPa 0,0 l/m 0 min 0 min 0 W/m 38,3 km/h (5 Bft) 95,74 %
29.01.2018 07:42 10,1 C 10,0 C 8,9 C 87 % 0 lf 1026,6 hPa 0,0 l/m 0 min 0 min 0 W/m 56,3 km/h (7 Bft) 95,74 %
29.01.2018 07:44 10,1 C 10,0 C 8,9 C 87 % 0 lf 1026,5 hPa 0,0 l/m 0 min 0 min 0 W/m 47,3 km/h (6 Bft) 95,74 %
29.01.2018 07:46 10,1 C 10,0 C 8,9 C 87 % 0 lf 1026,5 hPa 0,0 l/m 0 min 0 min 0 W/m 29,3 km/h (5 Bft) 93,62 %
29.01.2018 07:48 10,1 C 10,0 C 8,9 C 87 % 0 lf 1026,5 hPa 0,0 l/m 0 min 0 min 0 W/m 31,5 km/h (5 Bft) 97,87 %
29.01.2018 07:50 10,1 C 10,0 C 8,9 C 87 % 0 lf 1026,4 hPa 0,0 l/m 0 min 0 min 0 W/m 29,3 km/h (5 Bft) 96,55 %
29.01.2018 07:52 10,1 C 10,0 C 8,9 C 87 % 0 lf 1026,5 hPa 0,0 l/m 0 min 0 min 0 W/m 31,5 km/h (5 Bft) 100,00 %
29.01.2018 07:54 10,1 C 10,0 C 8,9 C 87 % 0 lf 1026,4 hPa 0,0 l/m 0 min 0 min 0 W/m 47,3 km/h (6 Bft) 100,00 %
29.01.2018 07:56 10,1 C 10,0 C 8,9 C 87 % 0 lf 1026,4 hPa 0,0 l/m 0 min 0 min 0 W/m 42,8 km/h (6 Bft) 100,00 %
29.01.2018 07:58 10,1 C 10,0 C 8,9 C 87 % 0 lf 1026,4 hPa 0,0 l/m 0 min 0 min 0 W/m 40,6 km/h (6 Bft) 97,87 %
29.01.2018 08:00 10,1 C 10,0 C 8,9 C 87 % 0 lf 1026,3 hPa 0,0 l/m 0 min 0 min 0 W/m 40,6 km/h (6 Bft) 97,87 %
29.01.2018 08:02 10,1 C 10,0 C 8,9 C 87 % 0 lf 1026,2 hPa 0,0 l/m 0 min 0 min 0 W/m 27,0 km/h (4 Bft) 80,43 %
29.01.2018 08:04 10,1 C 10,0 C 8,9 C 87 % 0 lf 1026,3 hPa 0,0 l/m 0 min 0 min 0 W/m 24,8 km/h (4 Bft) 60,71 %
29.01.2018 08:06 10,1 C 10,0 C 8,9 C 87 % 0 lf 1026,3 hPa 0,0 l/m 0 min 0 min 0 W/m 27,0 km/h (4 Bft) 95,74 %
29.01.2018 08:08 10,1 C 10,0 C 8,9 C 87 % 0 lf 1026,4 hPa 0,0 l/m 0 min 0 min 0 W/m 38,3 km/h (5 Bft) 100,00 %
29.01.2018 08:10 10,1 C 10,0 C 8,9 C 87 % 0 lf 1026,5 hPa 0,0 l/m 0 min 0 min 0 W/m 33,8 km/h (5 Bft) 100,00 %
29.01.2018 08:12 10,1 C 10,0 C 8,9 C 87 % 0 lf 1026,5 hPa 0,0 l/m 0 min 0 min 0 W/m 33,8 km/h (5 Bft) 100,00 %
29.01.2018 08:14 10,1 C 10,0 C 8,9 C 87 % 0 lf 1026,4 hPa 0,0 l/m 0 min 0 min 0 W/m 40,6 km/h (6 Bft) 97,83 %
29.01.2018 08:19 10,1 C 10,0 C 8,9 C 87 % 0 lf 1026,3 hPa 0,0 l/m 0 min 0 min 0 W/m 36,0 km/h (5 Bft) 97,14 %
29.01.2018 08:20 10,1 C 10,0 C 8,9 C 87 % 0 lf 1026,3 hPa 0,0 l/m 0 min 0 min 0 W/m 33,8 km/h (5 Bft) 95,83 %
29.01.2018 08:22 10,1 C 10,0 C 8,9 C 87 % 0 lf 1026,4 hPa 0,0 l/m 0 min 0 min 0 W/m 29,3 km/h (5 Bft) 100,00 %
29.01.2018 08:24 10,1 C 10,0 C 8,9 C 87 % 0 lf 1026,4 hPa 0,0 l/m 0 min 0 min 0 W/m 38,3 km/h (5 Bft) 97,87 %
29.01.2018 08:26 10,1 C 10,0 C 8,9 C 87 % 0 lf 1026,4 hPa 0,0 l/m 0 min 0 min 0 W/m 29,3 km/h (5 Bft) 100,00 %
29.01.2018 08:28 10,1 C 10,0 C 8,9 C 87 % 0 lf 1026,4 hPa 0,0 l/m 0 min 0 min 0 W/m 33,8 km/h (5 Bft) 97,87 %
29.01.2018 08:30 10,1 C 10,0 C 8,9 C 87 % 0 lf 1026,3 hPa 0,0 l/m 0 min 0 min 0 W/m 33,8 km/h (5 Bft) 100,00 %
29.01.2018 08:32 10,1 C 10,0 C 8,9 C 87 % 0 lf 1026,4 hPa 0,0 l/m 0 min 0 min 0 W/m 40,6 km/h (6 Bft) 97,87 %
29.01.2018 08:34 10,0 C 10,0 C 8,9 C 87 % 0 lf 1026,3 hPa 0,0 l/m 0 min 0 min 2 W/m 40,6 km/h (6 Bft) 100,00 %
29.01.2018 08:36 10,0 C 10,0 C 8,9 C 87 % 0 lf 1026,3 hPa 0,0 l/m 0 min 0 min 5 W/m 36,0 km/h (5 Bft) 100,00 %
29.01.2018 08:38 10,0 C 10,0 C 8,9 C 87 % 0 lf 1026,3 hPa 0,0 l/m 0 min 0 min 5 W/m 33,8 km/h (5 Bft) 100,00 %
29.01.2018 08:40 10,0 C 10,0 C 8,9 C 87 % 0 lf 1026,3 hPa 0,0 l/m 0 min 0 min 5 W/m 38,3 km/h (5 Bft) 100,00 %
29.01.2018 08:42 10,0 C 10,0 C 8,9 C 87 % 0 lf 1026,3 hPa 0,0 l/m 0 min 0 min 7 W/m 36,0 km/h (5 Bft) 97,87 %
29.01.2018 08:44 10,1 C 10,0 C 8,9 C 87 % 0 lf 1026,2 hPa 0,0 l/m 0 min 0 min 7 W/m 36,0 km/h (5 Bft) 97,87 %
29.01.2018 08:46 10,1 C 10,0 C 8,9 C 87 % 0 lf 1026,2 hPa 0,0 l/m 0 min 0 min 7 W/m 31,5 km/h (5 Bft) 97,87 %
29.01.2018 08:48 10,1 C 10,0 C 8,9 C 87 % 0 lf 1026,2 hPa 0,0 l/m 0 min 0 min 8 W/m 29,3 km/h (5 Bft) 100,00 %
29.01.2018 08:50 10,1 C 10,0 C 8,9 C 87 % 0 lf 1026,2 hPa 0,0 l/m 0 min 0 min 9 W/m 36,0 km/h (5 Bft) 100,00 %
29.01.2018 08:52 10,1 C 10,0 C 8,9 C 87 % 0 lf 1026,2 hPa 0,0 l/m 0 min 0 min 10 W/m 24,8 km/h (4 Bft) 100,00 %
29.01.2018 08:54 10,1 C 10,0 C 8,9 C 87 % 0 lf 1026,3 hPa 0,0 l/m 0 min 0 min 10 W/m 33,8 km/h (5 Bft) 100,00 %
29.01.2018 08:56 10,1 C 10,0 C 8,9 C 87 % 0 lf 1026,2 hPa 0,0 l/m 0 min 0 min 12 W/m 40,6 km/h (6 Bft) 100,00 %
29.01.2018 08:58 10,1 C 10,0 C 8,9 C 87 % 0 lf 1026,2 hPa 0,0 l/m 0 min 0 min 13 W/m 38,3 km/h (5 Bft) 100,00 %
29.01.2018 09:00 10,1 C 10,0 C 8,9 C 87 % 0 lf 1026,2 hPa 0,0 l/m 0 min 0 min 11 W/m 36,0 km/h (5 Bft) 97,83 %
29.01.2018 09:02 10,1 C 10,0 C 8,9 C 87 % 0 lf 1026,2 hPa 0,0 l/m 0 min 0 min 12 W/m 31,5 km/h (5 Bft) 97,87 %
29.01.2018 09:04 10,1 C 10,0 C 8,9 C 87 % 0 lf 1026,2 hPa 0,0 l/m 0 min 0 min 15 W/m 38,3 km/h (5 Bft) 100,00 %
29.01.2018 09:06 10,1 C 10,0 C 8,9 C 87 % 0 lf 1026,1 hPa 0,0 l/m 0 min 0 min 13 W/m 36,0 km/h (5 Bft) 97,87 %
29.01.2018 09:08 10,1 C 10,0 C 8,9 C 87 % 0 lf 1026,1 hPa 0,0 l/m 0 min 0 min 17 W/m 27,0 km/h (4 Bft) 100,00 %
29.01.2018 09:10 10,1 C 10,0 C 8,9 C 87 % 0 lf 1026,1 hPa 0,0 l/m 0 min 0 min 16 W/m 38,3 km/h (5 Bft) 100,00 %
29.01.2018 09:12 10,1 C 10,0 C 8,9 C 87 % 0 lf 1026,1 hPa 0,0 l/m 0 min 0 min 18 W/m 38,3 km/h (5 Bft) 100,00 %
29.01.2018 09:14 10,1 C 10,0 C 8,9 C 87 % 0 lf 1026,1 hPa 0,0 l/m 0 min 0 min 18 W/m 40,6 km/h (6 Bft) 100,00 %
29.01.2018 09:16 10,1 C 10,0 C 8,9 C 87 % 0 lf 1026,1 hPa 0,0 l/m 0 min 0 min 18 W/m 40,6 km/h (6 Bft) 97,87 %
29.01.2018 09:18 10,1 C 10,0 C 8,9 C 87 % 0 lf 1026,1 hPa 0,0 l/m 0 min 0 min 18 W/m 47,3 km/h (6 Bft) 95,74 %
29.01.2018 09:20 10,1 C 10,0 C 8,9 C 87 % 0 lf 1026,0 hPa 0,0 l/m 0 min 0 min 18 W/m 31,5 km/h (5 Bft) 96,61 %
29.01.2018 09:22 10,1 C 10,0 C 8,9 C 87 % 0 lf 1026,0 hPa 0,0 l/m 0 min 0 min 22 W/m 38,3 km/h (5 Bft) 97,14 %
29.01.2018 09:24 10,1 C 10,0 C 8,9 C 87 % 0 lf 1026,0 hPa 0,0 l/m 0 min 0 min 22 W/m 40,6 km/h (6 Bft) 97,83 %
29.01.2018 09:26 10,1 C 10,0 C 8,9 C 87 % 0 lf 1026,0 hPa 0,0 l/m 0 min 0 min 26 W/m 33,8 km/h (5 Bft) 97,87 %
29.01.2018 09:28 10,1 C 10,0 C 8,9 C 87 % 0 lf 1025,9 hPa 0,0 l/m 0 min 0 min 31 W/m 36,0 km/h (5 Bft) 95,74 %
29.01.2018 09:30 10,1 C 10,0 C 8,9 C 87 % 0 lf 1025,9 hPa 0,0 l/m 0 min 0 min 36 W/m 47,3 km/h (6 Bft) 97,87 %
29.01.2018 09:32 10,1 C 10,0 C 8,9 C 87 % 0 lf 1025,9 hPa 0,0 l/m 0 min 0 min 28 W/m 33,8 km/h (5 Bft) 97,87 %
29.01.2018 09:34 10,1 C 10,0 C 8,9 C 87 % 0 lf 1025,9 hPa 0,0 l/m 0 min 0 min 21 W/m 36,0 km/h (5 Bft) 95,74 %
29.01.2018 09:36 10,1 C 10,0 C 8,9 C 87 % 0 lf 1026,0 hPa 0,0 l/m 0 min 0 min 25 W/m 33,8 km/h (5 Bft) 91,30 %
29.01.2018 09:38 10,1 C 10,0 C 8,9 C 87 % 0 lf 1025,9 hPa 0,0 l/m 0 min 0 min 28 W/m 45,1 km/h (6 Bft) 95,74 %
29.01.2018 09:40 10,1 C 10,0 C 8,9 C 87 % 0 lf 1025,9 hPa 0,0 l/m 0 min 0 min 26 W/m 40,6 km/h (6 Bft) 97,87 %
29.01.2018 09:42 10,1 C 10,0 C 8,9 C 87 % 0 lf 1025,9 hPa 0,0 l/m 0 min 0 min 25 W/m 40,6 km/h (6 Bft) 91,49 %
29.01.2018 09:44 10,2 C 10,0 C 8,9 C 87 % 0 lf 1025,9 hPa 0,0 l/m 0 min 0 min 25 W/m 36,0 km/h (5 Bft) 95,74 %
29.01.2018 09:46 10,1 C 10,0 C 8,9 C 87 % 0 lf 1025,8 hPa 0,0 l/m 0 min 0 min 31 W/m 29,3 km/h (5 Bft) 93,75 %
29.01.2018 09:48 10,1 C 10,0 C 8,9 C 87 % 0 lf 1025,9 hPa 0,0 l/m 0 min 0 min 27 W/m 42,8 km/h (6 Bft) 95,65 %
29.01.2018 09:50 10,1 C 10,0 C 8,9 C 87 % 0 lf 1025,9 hPa 0,0 l/m 0 min 0 min 24 W/m 42,8 km/h (6 Bft) 91,53 %
29.01.2018 09:52 10,2 C 10,0 C 8,9 C 87 % 0 lf 1025,9 hPa 0,0 l/m 0 min 0 min 23 W/m 42,8 km/h (6 Bft) 97,14 %
29.01.2018 09:54 10,1 C 10,0 C 8,9 C 87 % 0 lf 1025,8 hPa 0,0 l/m 0 min 0 min 24 W/m 42,8 km/h (6 Bft) 95,74 %
29.01.2018 09:56 10,1 C 10,0 C 8,9 C 87 % 0 lf 1025,8 hPa 0,0 l/m 0 min 0 min 25 W/m 31,5 km/h (5 Bft) 95,74 %
29.01.2018 09:58 10,1 C 10,0 C 8,9 C 87 % 0 lf 1025,8 hPa 0,0 l/m 0 min 0 min 30 W/m 38,3 km/h (5 Bft) 89,36 %
29.01.2018 10:00 10,1 C 10,0 C 8,9 C 87 % 0 lf 1025,8 hPa 0,0 l/m 0 min 0 min 30 W/m 42,8 km/h (6 Bft) 91,30 %
29.01.2018 10:02 10,1 C 10,0 C 8,9 C 87 % 0 lf 1025,8 hPa 0,0 l/m 0 min 0 min 30 W/m 45,1 km/h (6 Bft) 93,62 %
29.01.2018 10:04 10,1 C 10,0 C 8,9 C 87 % 0 lf 1025,7 hPa 0,0 l/m 0 min 0 min 31 W/m 42,8 km/h (6 Bft) 93,62 %
29.01.2018 10:06 10,1 C 10,0 C 8,9 C 87 % 0 lf 1025,8 hPa 0,0 l/m 0 min 0 min 34 W/m 33,8 km/h (5 Bft) 91,49 %
29.01.2018 10:08 10,1 C 10,0 C 8,9 C 87 % 0 lf 1025,7 hPa 0,0 l/m 0 min 0 min 33 W/m 27,0 km/h (4 Bft) 93,62 %
29.01.2018 10:10 10,1 C 10,0 C 8,9 C 87 % 0 lf 1025,8 hPa 0,0 l/m 0 min 0 min 28 W/m 29,3 km/h (5 Bft) 91,30 %
29.01.2018 10:12 10,1 C 10,0 C 8,9 C 87 % 0 lf 1025,7 hPa 0,0 l/m 0 min 0 min 30 W/m 33,8 km/h (5 Bft) 91,49 %
29.01.2018 10:14 10,1 C 10,0 C 8,9 C 87 % 0 lf 1025,7 hPa 0,0 l/m 0 min 0 min 31 W/m 40,6 km/h (6 Bft) 93,62 %
29.01.2018 10:16 10,1 C 10,0 C 8,9 C 87 % 0 lf 1025,7 hPa 0,0 l/m 0 min 0 min 32 W/m 45,1 km/h (6 Bft) 93,75 %
29.01.2018 10:18 10,2 C 10,0 C 8,9 C 87 % 0 lf 1025,7 hPa 0,0 l/m 0 min 0 min 31 W/m 38,3 km/h (5 Bft) 95,74 %
29.01.2018 10:20 10,2 C 10,0 C 8,9 C 87 % 0 lf 1025,8 hPa 0,0 l/m 0 min 0 min 32 W/m 36,0 km/h (5 Bft) 93,10 %
29.01.2018 10:22 10,2 C 10,0 C 8,9 C 87 % 0 lf 1025,7 hPa 0,0 l/m 0 min 0 min 32 W/m 36,0 km/h (5 Bft) 94,29 %
29.01.2018 10:24 10,2 C 10,0 C 8,9 C 87 % 0 lf 1025,7 hPa 0,0 l/m 0 min 0 min 33 W/m 36,0 km/h (5 Bft) 95,74 %
29.01.2018 10:26 10,2 C 10,0 C 8,9 C 87 % 0 lf 1025,6 hPa 0,0 l/m 0 min 0 min 34 W/m 38,3 km/h (5 Bft) 91,49 %
29.01.2018 10:28 10,2 C 10,0 C 8,9 C 87 % 0 lf 1025,7 hPa 0,0 l/m 0 min 0 min 34 W/m 47,3 km/h (6 Bft) 93,62 %
29.01.2018 10:30 10,2 C 10,0 C 8,9 C 87 % 0 lf 1025,6 hPa 0,0 l/m 0 min 0 min 28 W/m 45,1 km/h (6 Bft) 95,74 %
29.01.2018 10:32 10,2 C 10,0 C 8,9 C 87 % 0 lf 1025,6 hPa 0,0 l/m 0 min 0 min 31 W/m 40,6 km/h (6 Bft) 93,62 %
29.01.2018 10:34 10,2 C 10,0 C 8,9 C 87 % 0 lf 1025,6 hPa 0,0 l/m 0 min 0 min 33 W/m 40,6 km/h (6 Bft) 97,83 %
29.01.2018 10:36 10,2 C 10,0 C 8,9 C 87 % 0 lf 1025,6 hPa 0,0 l/m 0 min 0 min 33 W/m 36,0 km/h (5 Bft) 95,74 %
29.01.2018 10:38 10,2 C 10,0 C 8,9 C 87 % 0 lf 1025,6 hPa 0,0 l/m 0 min 0 min 31 W/m 33,8 km/h (5 Bft) 97,87 %
29.01.2018 10:40 10,2 C 10,0 C 8,9 C 87 % 0 lf 1025,5 hPa 0,0 l/m 0 min 0 min 30 W/m 33,8 km/h (5 Bft) 97,87 %
29.01.2018 10:42 10,2 C 10,0 C 8,9 C 87 % 0 lf 1025,7 hPa 0,0 l/m 0 min 0 min 36 W/m 24,8 km/h (4 Bft) 95,74 %
29.01.2018 10:44 10,2 C 10,0 C 8,9 C 87 % 0 lf 1025,7 hPa 0,0 l/m 0 min 0 min 31 W/m 33,8 km/h (5 Bft) 97,87 %
29.01.2018 10:46 10,2 C 10,0 C 8,9 C 87 % 0 lf 1025,6 hPa 0,0 l/m 0 min 0 min 34 W/m 38,3 km/h (5 Bft) 97,83 %
29.01.2018 10:48 10,2 C 10,0 C 9,4 C 87 % 0 lf 1025,6 hPa 0,0 l/m 0 min 0 min 36 W/m 38,3 km/h (5 Bft) 97,87 %
29.01.2018 10:50 10,2 C 10,0 C 8,9 C 87 % 0 lf 1025,6 hPa 0,0 l/m 0 min 0 min 29 W/m 24,8 km/h (4 Bft) 94,92 %
29.01.2018 10:52 10,2 C 10,0 C 9,4 C 87 % 0 lf 1025,6 hPa 0,0 l/m 0 min 0 min 35 W/m 40,6 km/h (6 Bft) 100,00 %
29.01.2018 10:54 10,2 C 10,0 C 9,4 C 87 % 0 lf 1025,6 hPa 0,0 l/m 0 min 0 min 35 W/m 42,8 km/h (6 Bft) 95,74 %
29.01.2018 10:56 10,2 C 10,0 C 9,4 C 87 % 0 lf 1025,6 hPa 0,0 l/m 0 min 0 min 39 W/m 36,0 km/h (5 Bft) 95,74 %
29.01.2018 10:58 10,2 C 10,0 C 9,4 C 87 % 0 lf 1025,7 hPa 0,0 l/m 0 min 0 min 41 W/m 31,5 km/h (5 Bft) 95,65 %
29.01.2018 11:00 10,2 C 10,0 C 9,4 C 87 % 0 lf 1025,7 hPa 0,0 l/m 0 min 0 min 33 W/m 42,8 km/h (6 Bft) 100,00 %
29.01.2018 11:02 10,2 C 10,0 C 9,4 C 87 % 0 lf 1025,7 hPa 0,0 l/m 0 min 0 min 33 W/m 38,3 km/h (5 Bft) 97,96 %
29.01.2018 11:04 10,2 C 10,0 C 9,4 C 87 % 0 lf 1025,7 hPa 0,0 l/m 0 min 0 min 41 W/m 36,0 km/h (5 Bft) 97,87 %
29.01.2018 11:06 10,2 C 10,0 C 9,4 C 87 % 0 lf 1025,7 hPa 0,0 l/m 0 min 0 min 35 W/m 29,3 km/h (5 Bft) 97,87 %
29.01.2018 11:08 10,2 C 10,0 C 9,4 C 87 % 0 lf 1025,7 hPa 0,0 l/m 0 min 0 min 30 W/m 38,3 km/h (5 Bft) 97,83 %
29.01.2018 11:10 10,2 C 10,0 C 9,4 C 87 % 0 lf 1025,7 hPa 0,0 l/m 0 min 0 min 38 W/m 36,0 km/h (5 Bft) 97,87 %
29.01.2018 11:12 10,2 C 10,0 C 9,4 C 86 % 0 lf 1025,6 hPa 0,0 l/m 0 min 0 min 37 W/m 29,3 km/h (5 Bft) 97,87 %
29.01.2018 11:14 10,2 C 10,0 C 9,4 C 86 % 0 lf 1025,5 hPa 0,0 l/m 0 min 0 min 35 W/m 40,6 km/h (6 Bft) 97,87 %
29.01.2018 11:16 10,2 C 10,0 C 9,4 C 86 % 0 lf 1025,6 hPa 0,0 l/m 0 min 0 min 33 W/m 45,1 km/h (6 Bft) 97,87 %
29.01.2018 11:18 10,2 C 10,0 C 9,4 C 86 % 0 lf 1025,5 hPa 0,0 l/m 0 min 0 min 34 W/m 45,1 km/h (6 Bft) 97,87 %
29.01.2018 11:20 10,2 C 10,0 C 8,9 C 86 % 0 lf 1025,6 hPa 0,0 l/m 0 min 0 min 33 W/m 36,0 km/h (5 Bft) 98,28 %
29.01.2018 11:22 10,2 C 10,0 C 8,9 C 86 % 0 lf 1025,6 hPa 0,0 l/m 0 min 0 min 33 W/m 24,8 km/h (4 Bft) 94,29 %
29.01.2018 11:24 10,2 C 10,0 C 9,4 C 86 % 0 lf 1025,5 hPa 0,0 l/m 0 min 0 min 41 W/m 29,3 km/h (5 Bft) 97,87 %
29.01.2018 11:26 10,2 C 10,6 C 9,4 C 86 % 0 lf 1025,5 hPa 0,0 l/m 0 min 0 min 40 W/m 38,3 km/h (5 Bft) 95,74 %
29.01.2018 11:28 10,2 C 10,6 C 9,4 C 86 % 0 lf 1025,5 hPa 0,0 l/m 0 min 0 min 41 W/m 45,1 km/h (6 Bft) 97,87 %
29.01.2018 11:30 10,2 C 10,6 C 9,4 C 86 % 0 lf 1025,4 hPa 0,0 l/m 0 min 0 min 45 W/m 47,3 km/h (6 Bft) 95,65 %
29.01.2018 11:32 10,2 C 10,6 C 9,4 C 86 % 0 lf 1025,4 hPa 0,0 l/m 0 min 0 min 45 W/m 38,3 km/h (5 Bft) 95,74 %
29.01.2018 11:34 10,2 C 10,6 C 9,4 C 86 % 0 lf 1025,4 hPa 0,0 l/m 0 min 0 min 42 W/m 31,5 km/h (5 Bft) 95,74 %
29.01.2018 11:36 10,2 C 10,6 C 9,4 C 86 % 0 lf 1025,3 hPa 0,0 l/m 0 min 0 min 46 W/m 42,8 km/h (6 Bft) 95,74 %
29.01.2018 11:38 10,3 C 10,6 C 9,4 C 86 % 0 lf 1025,3 hPa 0,0 l/m 0 min 0 min 41 W/m 33,8 km/h (5 Bft) 97,87 %
29.01.2018 11:40 10,2 C 10,6 C 9,4 C 86 % 0 lf 1025,4 hPa 0,0 l/m 0 min 0 min 39 W/m 45,1 km/h (6 Bft) 97,87 %
29.01.2018 11:42 10,2 C 10,6 C 9,4 C 86 % 0 lf 1025,3 hPa 0,0 l/m 0 min 0 min 42 W/m 36,0 km/h (5 Bft) 97,83 %
29.01.2018 11:44 10,2 C 10,6 C 9,4 C 86 % 0 lf 1025,3 hPa 0,0 l/m 0 min 0 min 46 W/m 40,6 km/h (6 Bft) 97,87 %
29.01.2018 11:46 10,2 C 10,6 C 9,4 C 86 % 0 lf 1025,2 hPa 0,0 l/m 0 min 0 min 53 W/m 31,5 km/h (5 Bft) 97,87 %
29.01.2018 11:48 10,3 C 10,6 C 9,4 C 86 % 0 lf 1025,2 hPa 0,0 l/m 0 min 0 min 56 W/m 24,8 km/h (4 Bft) 95,74 %
29.01.2018 11:50 10,3 C 10,6 C 9,4 C 86 % 0 lf 1025,2 hPa 0,0 l/m 0 min 0 min 60 W/m 38,3 km/h (5 Bft) 98,28 %
29.01.2018 11:52 10,3 C 10,6 C 9,4 C 86 % 0 lf 1025,3 hPa 0,0 l/m 0 min 0 min 62 W/m 51,8 km/h (7 Bft) 100,00 %
29.01.2018 11:54 10,3 C 10,6 C 9,4 C 86 % 0 lf 1025,2 hPa 0,0 l/m 0 min 0 min 75 W/m 42,8 km/h (6 Bft) 97,83 %
29.01.2018 11:56 10,3 C 10,6 C 9,4 C 86 % 0 lf 1025,3 hPa 0,0 l/m 0 min 0 min 64 W/m 40,6 km/h (6 Bft) 100,00 %
29.01.2018 11:58 10,3 C 10,6 C 9,4 C 86 % 0 lf 1025,2 hPa 0,0 l/m 0 min 0 min 56 W/m 31,5 km/h (5 Bft) 100,00 %
29.01.2018 12:00 10,3 C 10,6 C 9,4 C 86 % 0 lf 1025,1 hPa 0,0 l/m 0 min 0 min 56 W/m 49,6 km/h (6 Bft) 100,00 %
29.01.2018 12:02 10,3 C 10,6 C 9,4 C 86 % 0 lf 1025,1 hPa 0,0 l/m 0 min 0 min 48 W/m 38,3 km/h (5 Bft) 97,87 %
29.01.2018 12:04 10,3 C 10,6 C 9,4 C 86 % 0 lf 1025,0 hPa 0,0 l/m 0 min 0 min 59 W/m 33,8 km/h (5 Bft) 100,00 %
29.01.2018 12:07 10,3 C 10,6 C 9,4 C 86 % 0 lf 1025,0 hPa 0,0 l/m 0 min 0 min 56 W/m 33,8 km/h (5 Bft) 100,00 %
29.01.2018 12:08 10,3 C 10,6 C 9,4 C 86 % 0 lf 1025,0 hPa 0,0 l/m 0 min 0 min 61 W/m 40,6 km/h (6 Bft) 100,00 %
29.01.2018 12:10 10,3 C 10,6 C 9,4 C 86 % 0 lf 1024,9 hPa 0,0 l/m 0 min 0 min 78 W/m 45,1 km/h (6 Bft) 97,87 %
29.01.2018 12:12 10,3 C 10,6 C 9,4 C 85 % 0 lf 1024,9 hPa 0,0 l/m 0 min 0 min 95 W/m 38,3 km/h (5 Bft) 97,87 %
29.01.2018 12:14 10,4 C 10,6 C 10,0 C 85 % 0 lf 1024,8 hPa 0,0 l/m 0 min 0 min 91 W/m 42,8 km/h (6 Bft) 100,00 %
29.01.2018 12:16 10,4 C 10,6 C 10,0 C 85 % 0 lf 1024,9 hPa 0,0 l/m 0 min 0 min 89 W/m 36,0 km/h (5 Bft) 97,87 %
29.01.2018 12:18 10,4 C 10,6 C 10,0 C 85 % 0 lf 1024,8 hPa 0,0 l/m 0 min 0 min 91 W/m 38,3 km/h (5 Bft) 100,00 %
29.01.2018 12:20 10,4 C 10,6 C 10,0 C 85 % 0 lf 1024,8 hPa 0,0 l/m 0 min 0 min 94 W/m 31,5 km/h (5 Bft) 100,00 %
29.01.2018 12:22 10,4 C 10,6 C 10,0 C 85 % 0 lf 1024,8 hPa 0,0 l/m 0 min 0 min 72 W/m 33,8 km/h (5 Bft) 97,87 %
29.01.2018 12:24 10,4 C 10,6 C 10,0 C 85 % 0 lf 1024,8 hPa 0,0 l/m 0 min 0 min 76 W/m 42,8 km/h (6 Bft) 91,49 %
29.01.2018 12:26 10,4 C 10,6 C 10,0 C 85 % 0 lf 1024,8 hPa 0,0 l/m 0 min 0 min 88 W/m 42,8 km/h (6 Bft) 97,87 %
29.01.2018 12:28 10,4 C 10,6 C 10,0 C 85 % 0 lf 1024,8 hPa 0,0 l/m 0 min 0 min 68 W/m 27,0 km/h (4 Bft) 91,49 %
29.01.2018 12:30 10,4 C 10,6 C 10,0 C 85 % 0 lf 1024,8 hPa 0,0 l/m 0 min 0 min 72 W/m 45,1 km/h (6 Bft) 97,83 %
29.01.2018 12:32 10,4 C 10,6 C 10,0 C 85 % 0 lf 1024,8 hPa 0,0 l/m 0 min 0 min 81 W/m 45,1 km/h (6 Bft) 97,87 %
29.01.2018 12:34 10,4 C 10,6 C 10,0 C 85 % 0 lf 1024,8 hPa 0,0 l/m 0 min 0 min 77 W/m 40,6 km/h (6 Bft) 95,74 %
29.01.2018 12:36 10,4 C 10,6 C 9,4 C 85 % 0 lf 1024,8 hPa 0,0 l/m 0 min 0 min 63 W/m 47,3 km/h (6 Bft) 91,49 %
29.01.2018 12:38 10,4 C 10,6 C 9,4 C 84 % 0 lf 1024,8 hPa 0,0 l/m 0 min 0 min 55 W/m 42,8 km/h (6 Bft) 97,87 %
29.01.2018 12:40 10,4 C 10,6 C 9,4 C 84 % 0 lf 1024,8 hPa 0,0 l/m 0 min 0 min 70 W/m 40,6 km/h (6 Bft) 91,49 %
29.01.2018 12:42 10,4 C 10,6 C 9,4 C 84 % 0 lf 1024,8 hPa 0,0 l/m 0 min 0 min 73 W/m 33,8 km/h (5 Bft) 93,48 %
29.01.2018 12:44 10,4 C 10,6 C 9,4 C 84 % 0 lf 1024,8 hPa 0,0 l/m 0 min 0 min 59 W/m 38,3 km/h (5 Bft) 95,74 %
29.01.2018 12:46 10,4 C 10,6 C 9,4 C 84 % 0 lf 1024,8 hPa 0,0 l/m 0 min 0 min 51 W/m 27,0 km/h (4 Bft) 95,74 %
29.01.2018 12:48 10,4 C 10,6 C 9,4 C 84 % 0 lf 1024,7 hPa 0,0 l/m 0 min 0 min 54 W/m 31,5 km/h (5 Bft) 95,74 %
29.01.2018 12:50 10,4 C 10,6 C 9,4 C 85 % 0 lf 1024,7 hPa 0,0 l/m 0 min 0 min 65 W/m 31,5 km/h (5 Bft) 95,74 %
29.01.2018 12:52 10,4 C 10,6 C 9,4 C 85 % 0 lf 1024,7 hPa 0,0 l/m 0 min 0 min 47 W/m 29,3 km/h (5 Bft) 95,74 %
29.01.2018 12:54 10,4 C 10,6 C 9,4 C 85 % 0 lf 1024,7 hPa 0,0 l/m 0 min 0 min 46 W/m 27,0 km/h (4 Bft) 95,65 %
29.01.2018 12:56 10,4 C 10,6 C 9,4 C 85 % 0 lf 1024,7 hPa 0,0 l/m 0 min 0 min 56 W/m 36,0 km/h (5 Bft) 91,49 %
29.01.2018 12:58 10,4 C 10,6 C 9,4 C 85 % 0 lf 1024,7 hPa 0,0 l/m 0 min 0 min 72 W/m 40,6 km/h (6 Bft) 93,62 %
29.01.2018 13:00 10,4 C 10,6 C 9,4 C 85 % 0 lf 1024,6 hPa 0,0 l/m 0 min 0 min 57 W/m 40,6 km/h (6 Bft) 91,49 %
29.01.2018 13:02 10,4 C 10,6 C 9,4 C 85 % 0 lf 1024,6 hPa 0,0 l/m 0 min 0 min 59 W/m 38,3 km/h (5 Bft) 95,74 %
29.01.2018 13:04 10,4 C 10,6 C 9,4 C 85 % 0 lf 1024,6 hPa 0,0 l/m 0 min 0 min 65 W/m 38,3 km/h (5 Bft) 95,65 %
29.01.2018 13:06 10,4 C 10,6 C 9,4 C 85 % 0 lf 1024,6 hPa 0,0 l/m 0 min 0 min 49 W/m 40,6 km/h (6 Bft) 97,87 %
29.01.2018 13:08 10,4 C 10,6 C 9,4 C 84 % 0 lf 1024,4 hPa 0,0 l/m 0 min 0 min 46 W/m 38,3 km/h (5 Bft) 95,74 %
29.01.2018 13:10 10,4 C 10,6 C 9,4 C 84 % 0 lf 1024,3 hPa 0,0 l/m 0 min 0 min 52 W/m 51,8 km/h (7 Bft) 93,62 %
29.01.2018 13:12 10,4 C 10,6 C 9,4 C 84 % 0 lf 1024,4 hPa 0,0 l/m 0 min 0 min 45 W/m 40,6 km/h (6 Bft) 95,74 %
29.01.2018 13:14 10,4 C 10,6 C 9,4 C 84 % 0 lf 1024,2 hPa 0,0 l/m 0 min 0 min 49 W/m 40,6 km/h (6 Bft) 95,74 %
29.01.2018 13:16 10,4 C 10,6 C 9,4 C 84 % 0 lf 1024,1 hPa 0,0 l/m 0 min 0 min 60 W/m 38,3 km/h (5 Bft) 95,65 %
29.01.2018 13:18 10,4 C 10,6 C 9,4 C 84 % 0 lf 1024,1 hPa 0,0 l/m 0 min 0 min 49 W/m 40,6 km/h (6 Bft) 95,74 %
29.01.2018 13:20 10,4 C 10,6 C 9,4 C 84 % 0 lf 1024,0 hPa 0,0 l/m 0 min 0 min 45 W/m 31,5 km/h (5 Bft) 95,74 %
29.01.2018 13:22 10,4 C 10,6 C 9,4 C 84 % 0 lf 1024,0 hPa 0,0 l/m 0 min 0 min 52 W/m 31,5 km/h (5 Bft) 95,74 %
29.01.2018 13:24 10,4 C 10,6 C 9,4 C 84 % 0 lf 1024,0 hPa 0,0 l/m 0 min 0 min 48 W/m 42,8 km/h (6 Bft) 95,74 %
29.01.2018 13:26 10,4 C 10,6 C 9,4 C 84 % 0 lf 1023,9 hPa 0,0 l/m 0 min 0 min 44 W/m 42,8 km/h (6 Bft) 95,74 %
29.01.2018 13:28 10,4 C 10,6 C 9,4 C 84 % 0 lf 1023,9 hPa 0,0 l/m 0 min 0 min 36 W/m 33,8 km/h (5 Bft) 95,65 %
29.01.2018 13:30 10,4 C 10,6 C 9,4 C 84 % 0 lf 1023,9 hPa 0,0 l/m 0 min 0 min 39 W/m 33,8 km/h (5 Bft) 97,87 %
29.01.2018 13:32 10,4 C 10,6 C 9,4 C 84 % 0 lf 1023,9 hPa 0,0 l/m 0 min 0 min 39 W/m 29,3 km/h (5 Bft) 95,74 %
29.01.2018 13:34 10,4 C 10,6 C 9,4 C 84 % 0 lf 1023,8 hPa 0,0 l/m 0 min 0 min 38 W/m 24,8 km/h (4 Bft) 93,62 %
29.01.2018 13:36 10,3 C 10,6 C 9,4 C 84 % 0 lf 1023,8 hPa 0,0 l/m 0 min 0 min 38 W/m 27,0 km/h (4 Bft) 91,49 %
29.01.2018 13:38 10,3 C 10,6 C 9,4 C 84 % 0 lf 1023,7 hPa 0,0 l/m 0 min 0 min 34 W/m 38,3 km/h (5 Bft) 93,62 %
29.01.2018 13:40 10,3 C 10,6 C 9,4 C 84 % 0 lf 1023,7 hPa 0,0 l/m 0 min 0 min 37 W/m 45,1 km/h (6 Bft) 95,65 %
29.01.2018 13:42 10,3 C 10,0 C 9,4 C 84 % 0 lf 1023,7 hPa 0,0 l/m 0 min 0 min 33 W/m 40,6 km/h (6 Bft) 95,74 %
29.01.2018 13:44 10,3 C 10,6 C 9,4 C 84 % 0 lf 1023,7 hPa 0,0 l/m 0 min 0 min 40 W/m 42,8 km/h (6 Bft) 91,49 %
29.01.2018 13:46 10,3 C 10,0 C 9,4 C 84 % 0 lf 1023,7 hPa 0,0 l/m 0 min 0 min 41 W/m 36,0 km/h (5 Bft) 95,74 %
29.01.2018 13:48 10,3 C 10,0 C 9,4 C 84 % 0 lf 1023,6 hPa 0,0 l/m 0 min 0 min 37 W/m 36,0 km/h (5 Bft) 93,62 %
29.01.2018 13:50 10,3 C 10,0 C 9,4 C 84 % 0 lf 1023,6 hPa 0,0 l/m 0 min 0 min 39 W/m 40,6 km/h (6 Bft) 97,87 %
29.01.2018 13:52 10,3 C 10,6 C 9,4 C 84 % 0 lf 1023,6 hPa 0,0 l/m 0 min 0 min 40 W/m 31,5 km/h (5 Bft) 97,83 %
29.01.2018 13:54 10,3 C 10,6 C 9,4 C 84 % 0 lf 1023,7 hPa 0,0 l/m 0 min 0 min 46 W/m 42,8 km/h (6 Bft) 93,62 %
29.01.2018 13:56 10,3 C 10,6 C 9,4 C 84 % 0 lf 1023,5 hPa 0,0 l/m 0 min 0 min 56 W/m 31,5 km/h (5 Bft) 100,00 %
29.01.2018 13:58 10,3 C 10,6 C 9,4 C 84 % 0 lf 1023,4 hPa 0,0 l/m 0 min 0 min 60 W/m 38,3 km/h (5 Bft) 97,87 %
29.01.2018 14:00 10,3 C 10,6 C 9,4 C 84 % 0 lf 1023,4 hPa 0,0 l/m 0 min 0 min 48 W/m 38,3 km/h (5 Bft) 93,62 %
29.01.2018 14:02 10,3 C 10,0 C 9,4 C 84 % 0 lf 1023,4 hPa 0,0 l/m 0 min 0 min 36 W/m 40,6 km/h (6 Bft) 95,65 %
29.01.2018 14:04 10,3 C 10,0 C 9,4 C 84 % 0 lf 1023,4 hPa 0,0 l/m 0 min 0 min 39 W/m 40,6 km/h (6 Bft) 93,62 %
29.01.2018 14:06 10,3 C 10,0 C 9,4 C 84 % 0 lf 1023,3 hPa 0,0 l/m 0 min 0 min 39 W/m 36,0 km/h (5 Bft) 97,87 %
29.01.2018 14:08 10,3 C 10,0 C 9,4 C 85 % 0 lf 1023,3 hPa 0,0 l/m 0 min 0 min 43 W/m 40,6 km/h (6 Bft) 95,74 %
29.01.2018 14:10 10,2 C 10,0 C 8,9 C 85 % 0 lf 1023,3 hPa 0,0 l/m 0 min 0 min 37 W/m 31,5 km/h (5 Bft) 97,87 %
29.01.2018 14:12 10,2 C 10,0 C 9,4 C 85 % 0 lf 1023,3 hPa 0,0 l/m 0 min 0 min 38 W/m 40,6 km/h (6 Bft) 95,74 %
29.01.2018 14:14 10,2 C 10,0 C 9,4 C 84 % 0 lf 1023,2 hPa 0,0 l/m 0 min 0 min 39 W/m 31,5 km/h (5 Bft) 97,87 %
29.01.2018 14:16 10,2 C 10,0 C 9,4 C 84 % 0 lf 1023,2 hPa 0,0 l/m 0 min 0 min 32 W/m 38,3 km/h (5 Bft) 97,83 %
29.01.2018 14:18 10,2 C 10,0 C 9,4 C 84 % 0 lf 1023,1 hPa 0,0 l/m 0 min 0 min 39 W/m 47,3 km/h (6 Bft) 97,87 %
29.01.2018 14:20 10,2 C 10,6 C 9,4 C 84 % 0 lf 1023,1 hPa 0,0 l/m 0 min 0 min 46 W/m 45,1 km/h (6 Bft) 95,74 %
29.01.2018 14:22 10,2 C 10,6 C 9,4 C 84 % 0 lf 1023,0 hPa 0,0 l/m 0 min 0 min 46 W/m 45,1 km/h (6 Bft) 95,74 %
29.01.2018 14:24 10,2 C 10,6 C 9,4 C 84 % 0 lf 1023,0 hPa 0,0 l/m 0 min 0 min 37 W/m 31,5 km/h (5 Bft) 95,74 %
29.01.2018 14:26 10,2 C 10,0 C 9,4 C 84 % 0 lf 1023,0 hPa 0,0 l/m 0 min 0 min 34 W/m 40,6 km/h (6 Bft) 97,83 %
29.01.2018 14:28 10,3 C 10,0 C 9,4 C 84 % 0 lf 1022,9 hPa 0,0 l/m 0 min 0 min 40 W/m 40,6 km/h (6 Bft) 97,87 %
29.01.2018 14:30 10,3 C 10,0 C 9,4 C 84 % 1 lf 1022,9 hPa 0,0 l/m 0 min 0 min 45 W/m 40,6 km/h (6 Bft) 97,87 %
29.01.2018 14:32 10,3 C 10,0 C 9,4 C 84 % 0 lf 1022,9 hPa 0,0 l/m 0 min 0 min 42 W/m 42,8 km/h (6 Bft) 100,00 %
29.01.2018 14:34 10,3 C 10,0 C 9,4 C 84 % 0 lf 1022,9 hPa 0,0 l/m 0 min 0 min 31 W/m 40,6 km/h (6 Bft) 100,00 %
29.01.2018 14:36 10,2 C 10,0 C 8,9 C 84 % 0 lf 1022,8 hPa 0,0 l/m 0 min 0 min 32 W/m 38,3 km/h (5 Bft) 100,00 %
29.01.2018 14:38 10,3 C 10,0 C 8,9 C 84 % 0 lf 1022,9 hPa 0,0 l/m 0 min 0 min 29 W/m 45,1 km/h (6 Bft) 100,00 %
29.01.2018 14:40 10,2 C 10,0 C 8,9 C 84 % 1 lf 1022,9 hPa 0,0 l/m 0 min 0 min 23 W/m 31,5 km/h (5 Bft) 97,87 %
29.01.2018 14:42 10,2 C 10,0 C 8,9 C 85 % 2 lf 1022,9 hPa 0,0 l/m 0 min 0 min 23 W/m 33,8 km/h (5 Bft) 100,00 %
29.01.2018 14:44 10,2 C 10,0 C 8,9 C 85 % 2 lf 1022,9 hPa 0,0 l/m 0 min 2 min 23 W/m 31,5 km/h (5 Bft) 100,00 %
29.01.2018 14:46 10,2 C 10,0 C 8,3 C 85 % 1 lf 1022,9 hPa 0,0 l/m 0 min 0 min 23 W/m 33,8 km/h (5 Bft) 100,00 %
29.01.2018 14:48 10,2 C 10,0 C 8,3 C 85 % 0 lf 1022,9 hPa 0,0 l/m 0 min 0 min 18 W/m 33,8 km/h (5 Bft) 100,00 %
29.01.2018 14:50 10,1 C 10,0 C 8,3 C 85 % 4 lf 1022,9 hPa 0,0 l/m 0 min 0 min 17 W/m 40,6 km/h (6 Bft) 95,65 %
29.01.2018 14:52 10,1 C 9,4 C 8,3 C 85 % 3 lf 1022,9 hPa 0,0 l/m 0 min 2 min 17 W/m 38,3 km/h (5 Bft) 97,87 %
29.01.2018 14:54 10,1 C 9,4 C 8,3 C 86 % 2 lf 1022,8 hPa 0,0 l/m 0 min 0 min 15 W/m 36,0 km/h (5 Bft) 100,00 %
29.01.2018 14:56 10,0 C 9,4 C 7,8 C 86 % 6 lf 1022,9 hPa 0,0 l/m 0 min 2 min 14 W/m 31,5 km/h (5 Bft) 97,87 %
29.01.2018 14:58 10,0 C 9,4 C 7,8 C 86 % 4 lf 1022,9 hPa 0,0 l/m 0 min 0 min 15 W/m 20,3 km/h (4 Bft) 100,00 %
29.01.2018 15:00 10,0 C 9,4 C 7,8 C 86 % 6 lf 1022,8 hPa 0,0 l/m 0 min 0 min 12 W/m 22,5 km/h (4 Bft) 100,00 %
29.01.2018 15:02 9,9 C 9,4 C 7,8 C 86 % 9 lf 1022,7 hPa 0,0 l/m 0 min 2 min 13 W/m 22,5 km/h (4 Bft) 97,83 %
29.01.2018 15:04 9,9 C 9,4 C 7,8 C 87 % 11 lf 1022,6 hPa 0,0 l/m 0 min 2 min 15 W/m 18,0 km/h (3 Bft) 97,87 %
29.01.2018 15:06 9,9 C 9,4 C 7,8 C 87 % 14 lf 1022,7 hPa 0,0 l/m 0 min 0 min 19 W/m 24,8 km/h (4 Bft) 100,00 %
29.01.2018 15:08 9,9 C 9,4 C 7,8 C 87 % 14 lf 1022,5 hPa 0,0 l/m 0 min 0 min 21 W/m 33,8 km/h (5 Bft) 95,74 %
29.01.2018 15:10 9,8 C 9,4 C 7,8 C 87 % 13 lf 1022,4 hPa 0,0 l/m 0 min 0 min 21 W/m 36,0 km/h (5 Bft) 95,74 %
29.01.2018 15:12 9,8 C 9,4 C 7,8 C 88 % 15 lf 1022,4 hPa 0,0 l/m 0 min 0 min 21 W/m 24,8 km/h (4 Bft) 93,62 %
29.01.2018 15:14 9,8 C 9,4 C 7,8 C 88 % 15 lf 1022,4 hPa 0,0 l/m 0 min 0 min 20 W/m 24,8 km/h (4 Bft) 93,48 %
29.01.2018 15:16 9,8 C 9,4 C 7,8 C 88 % 15 lf 1022,4 hPa 0,0 l/m 0 min 0 min 24 W/m 22,5 km/h (4 Bft) 95,74 %
29.01.2018 15:18 9,7 C 9,4 C 7,8 C 88 % 13 lf 1022,2 hPa 0,0 l/m 0 min 0 min 32 W/m 24,8 km/h (4 Bft) 91,49 %
29.01.2018 15:20 9,7 C 9,4 C 7,8 C 88 % 11 lf 1022,2 hPa 0,0 l/m 0 min 0 min 36 W/m 24,8 km/h (4 Bft) 93,62 %
29.01.2018 15:22 9,7 C 9,4 C 7,8 C 88 % 5 lf 1022,2 hPa 0,0 l/m 0 min 0 min 32 W/m 31,5 km/h (5 Bft) 95,74 %
29.01.2018 15:24 9,7 C 9,4 C 7,8 C 89 % 2 lf 1022,2 hPa 0,0 l/m 0 min 0 min 35 W/m 24,8 km/h (4 Bft) 95,74 %
29.01.2018 15:26 9,7 C 9,4 C 7,8 C 89 % 0 lf 1022,2 hPa 0,0 l/m 0 min 0 min 35 W/m 36,0 km/h (5 Bft) 93,48 %
29.01.2018 15:28 9,7 C 9,4 C 7,8 C 88 % 0 lf 1022,1 hPa 0,0 l/m 0 min 0 min 24 W/m 38,3 km/h (5 Bft) 89,36 %
29.01.2018 15:30 9,7 C 10,0 C 7,8 C 88 % 0 lf 1022,1 hPa 0,0 l/m 0 min 0 min 19 W/m 29,3 km/h (5 Bft) 87,23 %
29.01.2018 15:32 9,7 C 10,0 C 8,3 C 88 % 0 lf 1022,2 hPa 0,0 l/m 0 min 0 min 16 W/m 33,8 km/h (5 Bft) 93,62 %
29.01.2018 15:34 9,7 C 10,0 C 8,3 C 88 % 0 lf 1022,2 hPa 0,0 l/m 0 min 0 min 17 W/m 31,5 km/h (5 Bft) 87,23 %
29.01.2018 15:36 9,7 C 10,0 C 8,3 C 88 % 0 lf 1022,1 hPa 0,0 l/m 0 min 0 min 14 W/m 31,5 km/h (5 Bft) 93,62 %
29.01.2018 15:38 9,7 C 10,0 C 8,3 C 88 % 0 lf 1022,1 hPa 0,0 l/m 0 min 0 min 12 W/m 33,8 km/h (5 Bft) 93,48 %
29.01.2018 15:40 9,8 C 10,0 C 8,3 C 87 % 0 lf 1022,2 hPa 0,0 l/m 0 min 0 min 13 W/m 33,8 km/h (5 Bft) 93,62 %
29.01.2018 15:42 9,8 C 10,0 C 8,9 C 87 % 0 lf 1022,1 hPa 0,0 l/m 0 min 0 min 14 W/m 31,5 km/h (5 Bft) 91,49 %
29.01.2018 15:44 9,8 C 10,0 C 8,9 C 87 % 1 lf 1022,1 hPa 0,0 l/m 0 min 0 min 14 W/m 29,3 km/h (5 Bft) 97,87 %
29.01.2018 15:46 9,8 C 10,0 C 8,9 C 87 % 0 lf 1022,0 hPa 0,0 l/m 0 min 0 min 15 W/m 31,5 km/h (5 Bft) 95,74 %
29.01.2018 15:48 9,9 C 10,0 C 8,9 C 86 % 0 lf 1022,0 hPa 0,0 l/m 0 min 0 min 17 W/m 29,3 km/h (5 Bft) 93,48 %
29.01.2018 15:50 9,9 C 10,0 C 8,3 C 86 % 2 lf 1022,0 hPa 0,0 l/m 0 min 0 min 23 W/m 29,3 km/h (5 Bft) 95,74 %
29.01.2018 15:52 9,9 C 9,4 C 8,3 C 87 % 2 lf 1021,9 hPa 0,0 l/m 0 min 0 min 31 W/m 27,0 km/h (4 Bft) 93,62 %
29.01.2018 15:54 9,9 C 9,4 C 8,3 C 87 % 1 lf 1021,9 hPa 0,0 l/m 0 min 0 min 33 W/m 33,8 km/h (5 Bft) 95,74 %
29.01.2018 15:56 9,9 C 9,4 C 8,3 C 87 % 1 lf 1021,9 hPa 0,0 l/m 0 min 0 min 42 W/m 31,5 km/h (5 Bft) 97,87 %
29.01.2018 15:58 9,9 C 10,0 C 8,9 C 87 % 0 lf 1021,9 hPa 0,0 l/m 0 min 0 min 68 W/m 38,3 km/h (5 Bft) 95,74 %
29.01.2018 16:00 9,9 C 10,0 C 8,9 C 87 % 0 lf 1021,8 hPa 0,0 l/m 0 min 0 min 77 W/m 27,0 km/h (4 Bft) 95,65 %
29.01.2018 16:02 9,9 C 10,0 C 8,9 C 87 % 0 lf 1021,8 hPa 0,0 l/m 0 min 0 min 76 W/m 31,5 km/h (5 Bft) 95,74 %
29.01.2018 16:04 9,9 C 10,0 C 8,9 C 87 % 0 lf 1021,8 hPa 0,0 l/m 0 min 0 min 76 W/m 31,5 km/h (5 Bft) 93,62 %
29.01.2018 16:06 9,9 C 10,0 C 8,9 C 87 % 0 lf 1021,7 hPa 0,0 l/m 0 min 0 min 67 W/m 38,3 km/h (5 Bft) 93,62 %
29.01.2018 16:08 9,9 C 10,0 C 8,9 C 87 % 0 lf 1021,8 hPa 0,0 l/m 0 min 0 min 65 W/m 42,8 km/h (6 Bft) 95,74 %
29.01.2018 16:10 9,9 C 10,0 C 8,9 C 87 % 0 lf 1021,7 hPa 0,0 l/m 0 min 0 min 62 W/m 33,8 km/h (5 Bft) 97,87 %
29.01.2018 16:12 9,9 C 10,0 C 8,9 C 87 % 0 lf 1021,8 hPa 0,0 l/m 0 min 0 min 59 W/m 36,0 km/h (5 Bft) 95,65 %
29.01.2018 16:14 9,9 C 10,0 C 8,9 C 88 % 0 lf 1021,7 hPa 0,0 l/m 0 min 0 min 51 W/m 29,3 km/h (5 Bft) 97,87 %
29.01.2018 16:16 9,9 C 10,0 C 8,9 C 88 % 0 lf 1021,7 hPa 0,0 l/m 0 min 0 min 43 W/m 31,5 km/h (5 Bft) 100,00 %
29.01.2018 16:18 9,9 C 10,0 C 8,9 C 88 % 0 lf 1021,6 hPa 0,0 l/m 0 min 0 min 35 W/m 31,5 km/h (5 Bft) 100,00 %
29.01.2018 16:20 9,9 C 10,0 C 8,9 C 88 % 0 lf 1021,5 hPa 0,0 l/m 0 min 0 min 32 W/m 42,8 km/h (6 Bft) 97,87 %
29.01.2018 16:22 9,9 C 10,0 C 8,9 C 88 % 0 lf 1021,5 hPa 0,0 l/m 0 min 0 min 28 W/m 29,3 km/h (5 Bft) 93,62 %
29.01.2018 16:24 9,9 C 10,0 C 8,9 C 88 % 0 lf 1021,6 hPa 0,0 l/m 0 min 0 min 24 W/m 40,6 km/h (6 Bft) 100,00 %
29.01.2018 16:26 9,9 C 10,0 C 8,9 C 88 % 0 lf 1021,5 hPa 0,0 l/m 0 min 0 min 21 W/m 33,8 km/h (5 Bft) 100,00 %
29.01.2018 16:28 9,9 C 10,0 C 8,9 C 88 % 0 lf 1021,6 hPa 0,0 l/m 0 min 0 min 19 W/m 45,1 km/h (6 Bft) 95,74 %
29.01.2018 16:30 9,9 C 10,0 C 8,9 C 88 % 0 lf 1021,7 hPa 0,0 l/m 0 min 0 min 17 W/m 45,1 km/h (6 Bft) 100,00 %
29.01.2018 16:32 9,9 C 10,0 C 8,9 C 88 % 0 lf 1021,7 hPa 0,0 l/m 0 min 0 min 16 W/m 40,6 km/h (6 Bft) 97,87 %
29.01.2018 16:34 9,9 C 9,4 C 8,9 C 88 % 0 lf 1021,6 hPa 0,0 l/m 0 min 0 min 14 W/m 31,5 km/h (5 Bft) 100,00 %
29.01.2018 16:36 9,8 C 9,4 C 8,9 C 88 % 0 lf 1021,7 hPa 0,0 l/m 0 min 0 min 11 W/m 31,5 km/h (5 Bft) 97,83 %
29.01.2018 16:38 9,8 C 9,4 C 8,9 C 88 % 0 lf 1021,5 hPa 0,0 l/m 0 min 0 min 10 W/m 31,5 km/h (5 Bft) 97,87 %
29.01.2018 16:40 9,8 C 9,4 C 8,9 C 88 % 0 lf 1021,5 hPa 0,0 l/m 0 min 0 min 11 W/m 38,3 km/h (5 Bft) 97,87 %
29.01.2018 16:42 9,8 C 9,4 C 8,9 C 88 % 0 lf 1021,5 hPa 0,0 l/m 0 min 0 min 13 W/m 31,5 km/h (5 Bft) 97,87 %
29.01.2018 16:44 9,8 C 9,4 C 8,3 C 88 % 0 lf 1021,4 hPa 0,0 l/m 0 min 0 min 16 W/m 36,0 km/h (5 Bft) 100,00 %
29.01.2018 16:46 9,8 C 9,4 C 8,3 C 88 % 0 lf 1021,3 hPa 0,0 l/m 0 min 0 min 16 W/m 45,1 km/h (6 Bft) 97,87 %
29.01.2018 16:48 9,8 C 9,4 C 8,3 C 88 % 0 lf 1021,4 hPa 0,0 l/m 0 min 0 min 15 W/m 31,5 km/h (5 Bft) 100,00 %
29.01.2018 16:50 9,8 C 9,4 C 8,3 C 88 % 0 lf 1021,3 hPa 0,0 l/m 0 min 0 min 13 W/m 47,3 km/h (6 Bft) 100,00 %
29.01.2018 16:52 9,8 C 9,4 C 8,3 C 88 % 0 lf 1021,4 hPa 0,0 l/m 0 min 0 min 11 W/m 47,3 km/h (6 Bft) 100,00 %
29.01.2018 16:54 9,7 C 9,4 C 8,3 C 88 % 0 lf 1021,4 hPa 0,0 l/m 0 min 0 min 8 W/m 36,0 km/h (5 Bft) 95,74 %
29.01.2018 16:56 9,7 C 9,4 C 8,3 C 88 % 0 lf 1021,4 hPa 0,0 l/m 0 min 0 min 5 W/m 38,3 km/h (5 Bft) 97,87 %
29.01.2018 16:58 9,7 C 9,4 C 8,3 C 88 % 0 lf 1021,3 hPa 0,0 l/m 0 min 0 min 5 W/m 40,6 km/h (6 Bft) 100,00 %
29.01.2018 17:00 9,8 C 9,4 C 8,3 C 88 % 0 lf 1021,3 hPa 0,0 l/m 0 min 0 min 5 W/m 45,1 km/h (6 Bft) 100,00 %
29.01.2018 17:02 9,7 C 9,4 C 8,9 C 88 % 0 lf 1021,3 hPa 0,0 l/m 0 min 0 min 5 W/m 47,3 km/h (6 Bft) 95,74 %
29.01.2018 17:04 9,8 C 9,4 C 8,3 C 88 % 0 lf 1021,4 hPa 0,0 l/m 0 min 0 min 1 W/m 36,0 km/h (5 Bft) 97,87 %
29.01.2018 17:06 9,8 C 9,4 C 8,3 C 88 % 0 lf 1021,3 hPa 0,0 l/m 0 min 0 min 0 W/m 31,5 km/h (5 Bft) 97,87 %
29.01.2018 17:08 9,8 C 9,4 C 8,3 C 88 % 0 lf 1021,4 hPa 0,0 l/m 0 min 0 min 0 W/m 45,1 km/h (6 Bft) 95,74 %
29.01.2018 17:10 9,8 C 9,4 C 8,3 C 88 % 0 lf 1021,4 hPa 0,0 l/m 0 min 0 min 0 W/m 60,8 km/h (7 Bft) 97,83 %
29.01.2018 17:12 9,8 C 9,4 C 8,3 C 88 % 0 lf 1021,3 hPa 0,0 l/m 0 min 0 min 0 W/m 42,8 km/h (6 Bft) 97,87 %
29.01.2018 17:14 9,8 C 9,4 C 8,3 C 88 % 0 lf 1021,3 hPa 0,0 l/m 0 min 0 min 0 W/m 47,3 km/h (6 Bft) 97,87 %
29.01.2018 17:16 9,7 C 9,4 C 8,3 C 88 % 0 lf 1021,3 hPa 0,0 l/m 0 min 0 min 0 W/m 38,3 km/h (5 Bft) 95,74 %
29.01.2018 17:18 9,7 C 9,4 C 8,3 C 88 % 0 lf 1021,3 hPa 0,0 l/m 0 min 0 min 0 W/m 36,0 km/h (5 Bft) 95,74 %
29.01.2018 17:20 9,7 C 9,4 C 8,3 C 88 % 0 lf 1021,4 hPa 0,0 l/m 0 min 0 min 0 W/m 45,1 km/h (6 Bft) 91,49 %
29.01.2018 17:22 9,7 C 9,4 C 8,3 C 88 % 0 lf 1021,4 hPa 0,0 l/m 0 min 0 min 0 W/m 56,3 km/h (7 Bft) 95,65 %
29.01.2018 17:24 9,8 C 9,4 C 8,9 C 88 % 0 lf 1021,4 hPa 0,0 l/m 0 min 0 min 0 W/m 51,8 km/h (7 Bft) 95,74 %
29.01.2018 17:26 9,8 C 9,4 C 8,3 C 88 % 0 lf 1021,4 hPa 0,0 l/m 0 min 0 min 0 W/m 38,3 km/h (5 Bft) 97,87 %
29.01.2018 17:28 9,8 C 9,4 C 8,3 C 88 % 1 lf 1021,5 hPa 0,0 l/m 0 min 0 min 0 W/m 40,6 km/h (6 Bft) 95,74 %
29.01.2018 17:30 9,8 C 9,4 C 8,3 C 88 % 1 lf 1021,5 hPa 0,0 l/m 0 min 0 min 0 W/m 40,6 km/h (6 Bft) 95,74 %
29.01.2018 17:32 9,8 C 9,4 C 7,8 C 88 % 3 lf 1021,5 hPa 0,0 l/m 0 min 0 min 0 W/m 42,8 km/h (6 Bft) 95,74 %
29.01.2018 17:34 9,7 C 8,9 C 7,8 C 88 % 2 lf 1021,6 hPa 0,0 l/m 0 min 0 min 0 W/m 47,3 km/h (6 Bft) 95,65 %
29.01.2018 17:36 9,7 C 8,9 C 7,8 C 88 % 2 lf 1021,7 hPa 0,0 l/m 0 min 0 min 0 W/m 47,3 km/h (6 Bft) 95,74 %
29.01.2018 17:38 9,7 C 8,9 C 7,8 C 88 % 2 lf 1021,7 hPa 0,0 l/m 0 min 0 min 0 W/m 47,3 km/h (6 Bft) 93,62 %
29.01.2018 17:40 9,6 C 8,9 C 7,8 C 89 % 4 lf 1021,7 hPa 0,0 l/m 0 min 0 min 0 W/m 31,5 km/h (5 Bft) 95,74 %
29.01.2018 17:42 9,6 C 8,9 C 7,8 C 89 % 6 lf 1021,7 hPa 0,0 l/m 0 min 0 min 0 W/m 33,8 km/h (5 Bft) 93,62 %
29.01.2018 17:44 9,6 C 8,9 C 7,2 C 89 % 4 lf 1021,7 hPa 0,0 l/m 0 min 0 min 0 W/m 31,5 km/h (5 Bft) 97,87 %
29.01.2018 17:46 9,5 C 8,9 C 7,2 C 89 % 3 lf 1021,7 hPa 0,0 l/m 0 min 0 min 0 W/m 42,8 km/h (6 Bft) 97,83 %
29.01.2018 17:48 9,5 C 8,9 C 7,2 C 90 % 7 lf 1021,7 hPa 0,0 l/m 0 min 2 min 0 W/m 36,0 km/h (5 Bft) 95,74 %
29.01.2018 17:50 9,4 C 8,9 C 7,2 C 90 % 12 lf 1021,7 hPa 0,0 l/m 0 min 2 min 0 W/m 40,6 km/h (6 Bft) 97,87 %
29.01.2018 17:52 9,4 C 8,9 C 7,2 C 90 % 15 lf 1021,6 hPa 0,0 l/m 0 min 2 min 0 W/m 42,8 km/h (6 Bft) 95,74 %
29.01.2018 17:54 9,4 C 8,9 C 7,2 C 90 % 15 lf 1021,5 hPa 0,0 l/m 0 min 2 min 0 W/m 40,6 km/h (6 Bft) 95,74 %
29.01.2018 17:56 9,3 C 8,3 C 7,2 C 90 % 15 lf 1021,5 hPa 0,0 l/m 0 min 2 min 0 W/m 36,0 km/h (5 Bft) 95,74 %
29.01.2018 17:58 9,3 C 8,3 C 7,2 C 91 % 15 lf 1021,6 hPa 0,0 l/m 0 min 2 min 0 W/m 31,5 km/h (5 Bft) 95,65 %
29.01.2018 18:00 9,3 C 8,3 C 7,2 C 91 % 15 lf 1021,7 hPa 0,0 l/m 0 min 2 min 0 W/m 29,3 km/h (5 Bft) 95,74 %
29.01.2018 18:02 9,2 C 8,3 C 7,2 C 91 % 15 lf 1021,6 hPa 0,0 l/m 0 min 2 min 0 W/m 38,3 km/h (5 Bft) 95,74 %
29.01.2018 18:04 9,2 C 8,3 C 7,2 C 91 % 15 lf 1021,6 hPa 0,0 l/m 0 min 2 min 0 W/m 38,3 km/h (5 Bft) 95,74 %
29.01.2018 18:06 9,2 C 8,3 C 7,2 C 91 % 15 lf 1021,5 hPa 0,0 l/m 0 min 2 min 0 W/m 38,3 km/h (5 Bft) 93,62 %
29.01.2018 18:08 9,2 C 8,3 C 7,2 C 92 % 15 lf 1021,5 hPa 0,0 l/m 0 min 2 min 0 W/m 42,8 km/h (6 Bft) 95,65 %
29.01.2018 18:10 9,1 C 8,3 C 7,2 C 92 % 15 lf 1021,5 hPa 0,0 l/m 0 min 2 min 0 W/m 45,1 km/h (6 Bft) 93,62 %
29.01.2018 18:12 9,1 C 8,3 C 7,2 C 92 % 15 lf 1021,5 hPa 0,0 l/m 0 min 2 min 0 W/m 40,6 km/h (6 Bft) 93,62 %
29.01.2018 18:14 9,1 C 8,3 C 7,2 C 92 % 15 lf 1021,5 hPa 0,0 l/m 0 min 2 min 0 W/m 40,6 km/h (6 Bft) 93,62 %
29.01.2018 18:16 9,1 C 8,3 C 7,2 C 92 % 15 lf 1021,5 hPa 0,0 l/m 0 min 2 min 0 W/m 40,6 km/h (6 Bft) 89,36 %
29.01.2018 18:18 9,1 C 8,3 C 7,2 C 92 % 15 lf 1021,5 hPa 0,0 l/m 0 min 2 min 0 W/m 29,3 km/h (5 Bft) 93,62 %
29.01.2018 18:20 9,1 C 8,3 C 7,2 C 92 % 15 lf 1021,5 hPa 0,0 l/m 0 min 2 min 0 W/m 38,3 km/h (5 Bft) 95,65 %
29.01.2018 18:22 9,1 C 8,3 C 7,2 C 92 % 15 lf 1021,5 hPa 0,2 l/m 0 min 2 min 0 W/m 36,0 km/h (5 Bft) 93,62 %
29.01.2018 18:24 9,1 C 8,3 C 7,2 C 93 % 15 lf 1021,5 hPa 0,0 l/m 0 min 2 min 0 W/m 40,6 km/h (6 Bft) 95,74 %
29.01.2018 18:26 9,1 C 8,3 C 7,2 C 93 % 15 lf 1021,7 hPa 0,0 l/m 0 min 2 min 0 W/m 38,3 km/h (5 Bft) 95,74 %
29.01.2018 18:28 9,0 C 8,3 C 7,2 C 93 % 15 lf 1021,6 hPa 0,0 l/m 0 min 2 min 0 W/m 40,6 km/h (6 Bft) 93,62 %
29.01.2018 18:30 9,0 C 8,3 C 7,2 C 93 % 15 lf 1021,7 hPa 0,0 l/m 0 min 2 min 0 W/m 36,0 km/h (5 Bft) 95,74 %
29.01.2018 18:32 9,0 C 8,3 C 7,2 C 93 % 15 lf 1021,5 hPa 0,0 l/m 0 min 2 min 0 W/m 38,3 km/h (5 Bft) 95,65 %
29.01.2018 18:34 8,9 C 8,3 C 7,2 C 93 % 15 lf 1021,5 hPa 0,0 l/m 0 min 2 min 0 W/m 42,8 km/h (6 Bft) 93,62 %
29.01.2018 18:36 8,9 C 8,3 C 7,2 C 93 % 15 lf 1021,6 hPa 0,0 l/m 0 min 2 min 0 W/m 36,0 km/h (5 Bft) 93,62 %
29.01.2018 18:38 8,9 C 8,3 C 7,2 C 94 % 15 lf 1021,6 hPa 0,0 l/m 0 min 2 min 0 W/m 54,1 km/h (7 Bft) 95,74 %
29.01.2018 18:40 8,9 C 8,3 C 7,2 C 94 % 15 lf 1021,6 hPa 0,0 l/m 0 min 2 min 0 W/m 40,6 km/h (6 Bft) 95,74 %
29.01.2018 18:42 8,9 C 8,3 C 7,2 C 94 % 15 lf 1021,5 hPa 0,0 l/m 0 min 2 min 0 W/m 38,3 km/h (5 Bft) 95,74 %
29.01.2018 18:44 8,9 C 8,3 C 7,2 C 94 % 15 lf 1021,6 hPa 0,0 l/m 0 min 2 min 0 W/m 40,6 km/h (6 Bft) 91,30 %
29.01.2018 18:46 8,9 C 8,3 C 7,2 C 94 % 15 lf 1021,7 hPa 0,0 l/m 0 min 2 min 0 W/m 38,3 km/h (5 Bft) 97,87 %
29.01.2018 18:48 8,9 C 7,8 C 7,2 C 94 % 15 lf 1021,6 hPa 0,0 l/m 0 min 2 min 0 W/m 31,5 km/h (5 Bft) 95,74 %
29.01.2018 18:50 8,8 C 7,8 C 7,2 C 94 % 15 lf 1021,6 hPa 0,0 l/m 0 min 2 min 0 W/m 33,8 km/h (5 Bft) 95,74 %
29.01.2018 18:52 8,8 C 7,8 C 7,2 C 94 % 15 lf 1021,6 hPa 0,0 l/m 0 min 2 min 0 W/m 36,0 km/h (5 Bft) 95,74 %
29.01.2018 18:54 8,8 C 7,8 C 7,2 C 95 % 15 lf 1021,7 hPa 0,0 l/m 0 min 2 min 0 W/m 40,6 km/h (6 Bft) 97,87 %
29.01.2018 18:56 8,8 C 7,8 C 7,2 C 95 % 15 lf 1021,5 hPa 0,0 l/m 0 min 2 min 0 W/m 31,5 km/h (5 Bft) 93,48 %
29.01.2018 18:58 8,8 C 7,8 C 7,2 C 95 % 15 lf 1021,6 hPa 0,0 l/m 0 min 2 min 0 W/m 31,5 km/h (5 Bft) 97,87 %
29.01.2018 19:00 8,8 C 7,8 C 7,2 C 95 % 15 lf 1021,7 hPa 0,0 l/m 0 min 2 min 0 W/m 38,3 km/h (5 Bft) 100,00 %
29.01.2018 19:02 8,8 C 7,8 C 7,2 C 95 % 15 lf 1021,7 hPa 0,0 l/m 0 min 2 min 0 W/m 38,3 km/h (5 Bft) 95,74 %
29.01.2018 19:04 8,8 C 7,8 C 7,2 C 95 % 15 lf 1021,7 hPa 0,0 l/m 0 min 2 min 0 W/m 33,8 km/h (5 Bft) 100,00 %
29.01.2018 19:06 8,8 C 7,8 C 7,2 C 95 % 15 lf 1021,7 hPa 0,0 l/m 0 min 2 min 0 W/m 38,3 km/h (5 Bft) 100,00 %
29.01.2018 19:08 8,8 C 8,3 C 7,2 C 95 % 15 lf 1021,7 hPa 0,2 l/m 0 min 2 min 0 W/m 40,6 km/h (6 Bft) 97,87 %
29.01.2018 19:10 8,8 C 8,3 C 7,2 C 95 % 15 lf 1021,7 hPa 0,0 l/m 0 min 2 min 0 W/m 36,0 km/h (5 Bft) 97,87 %
29.01.2018 19:12 8,8 C 8,3 C 7,2 C 96 % 15 lf 1021,7 hPa 0,0 l/m 0 min 2 min 0 W/m 33,8 km/h (5 Bft) 97,87 %
29.01.2018 19:14 8,8 C 8,3 C 7,2 C 96 % 15 lf 1021,8 hPa 0,0 l/m 0 min 2 min 0 W/m 33,8 km/h (5 Bft) 95,74 %
29.01.2018 19:16 8,8 C 8,3 C 7,2 C 96 % 15 lf 1021,8 hPa 0,2 l/m 0 min 2 min 0 W/m 36,0 km/h (5 Bft) 97,87 %
29.01.2018 19:18 8,8 C 8,3 C 7,2 C 96 % 15 lf 1021,8 hPa 0,0 l/m 0 min 2 min 0 W/m 42,8 km/h (6 Bft) 100,00 %
29.01.2018 19:20 8,8 C 8,3 C 7,2 C 96 % 15 lf 1021,9 hPa 0,0 l/m 0 min 2 min 0 W/m 29,3 km/h (5 Bft) 93,48 %
29.01.2018 19:22 8,8 C 8,3 C 7,2 C 96 % 15 lf 1021,9 hPa 0,0 l/m 0 min 2 min 0 W/m 31,5 km/h (5 Bft) 97,87 %
29.01.2018 19:24 8,8 C 8,3 C 7,2 C 96 % 15 lf 1021,9 hPa 0,0 l/m 0 min 2 min 0 W/m 27,0 km/h (4 Bft) 95,74 %
29.01.2018 19:26 8,8 C 8,3 C 7,2 C 96 % 15 lf 1021,9 hPa 0,0 l/m 0 min 2 min 0 W/m 24,8 km/h (4 Bft) 97,87 %
29.01.2018 19:28 8,8 C 8,3 C 7,2 C 96 % 15 lf 1021,9 hPa 0,0 l/m 0 min 2 min 0 W/m 31,5 km/h (5 Bft) 97,87 %
29.01.2018 19:30 8,8 C 8,3 C 7,2 C 96 % 15 lf 1022,1 hPa 0,0 l/m 0 min 2 min 0 W/m 27,0 km/h (4 Bft) 95,65 %
29.01.2018 19:32 8,8 C 8,3 C 7,2 C 96 % 15 lf 1022,1 hPa 0,2 l/m 0 min 2 min 0 W/m 36,0 km/h (5 Bft) 93,62 %
29.01.2018 19:34 8,8 C 8,3 C 7,2 C 96 % 15 lf 1022,2 hPa 0,0 l/m 0 min 2 min 0 W/m 38,3 km/h (5 Bft) 97,87 %
29.01.2018 19:36 8,8 C 8,3 C 7,2 C 96 % 15 lf 1022,1 hPa 0,0 l/m 0 min 2 min 0 W/m 36,0 km/h (5 Bft) 97,87 %
29.01.2018 19:38 8,8 C 8,3 C 7,2 C 96 % 15 lf 1022,1 hPa 0,0 l/m 0 min 2 min 0 W/m 36,0 km/h (5 Bft) 97,87 %
29.01.2018 19:40 8,8 C 8,3 C 7,2 C 96 % 15 lf 1022,2 hPa 0,2 l/m 0 min 2 min 0 W/m 29,3 km/h (5 Bft) 100,00 %
29.01.2018 19:42 8,8 C 8,3 C 7,2 C 96 % 15 lf 1022,3 hPa 0,0 l/m 0 min 2 min 0 W/m 33,8 km/h (5 Bft) 100,00 %
29.01.2018 19:44 8,9 C 8,3 C 7,2 C 96 % 15 lf 1022,5 hPa 0,0 l/m 0 min 2 min 0 W/m 40,6 km/h (6 Bft) 97,87 %
29.01.2018 19:46 8,9 C 8,3 C 7,2 C 96 % 15 lf 1022,6 hPa 0,2 l/m 0 min 2 min 0 W/m 49,6 km/h (6 Bft) 93,62 %
29.01.2018 19:48 8,9 C 8,3 C 7,8 C 97 % 15 lf 1022,8 hPa 0,2 l/m 0 min 2 min 0 W/m 45,1 km/h (6 Bft) 100,00 %
29.01.2018 19:50 8,9 C 8,3 C 7,8 C 97 % 15 lf 1022,8 hPa 0,2 l/m 0 min 2 min 0 W/m 49,6 km/h (6 Bft) 100,00 %
29.01.2018 19:52 9,0 C 8,3 C 7,8 C 97 % 15 lf 1022,9 hPa 0,2 l/m 0 min 2 min 0 W/m 29,3 km/h (5 Bft) 100,00 %
29.01.2018 19:54 9,0 C 8,3 C 7,8 C 97 % 15 lf 1022,9 hPa 0,0 l/m 0 min 2 min 0 W/m 33,8 km/h (5 Bft) 97,87 %
29.01.2018 19:56 9,0 C 8,3 C 7,8 C 97 % 15 lf 1022,9 hPa 0,0 l/m 0 min 2 min 0 W/m 29,3 km/h (5 Bft) 100,00 %
29.01.2018 19:58 9,0 C 8,3 C 7,8 C 97 % 15 lf 1022,9 hPa 0,2 l/m 0 min 2 min 0 W/m 45,1 km/h (6 Bft) 100,00 %
29.01.2018 20:00 9,0 C 8,3 C 7,8 C 97 % 15 lf 1022,9 hPa 0,0 l/m 0 min 2 min 0 W/m 42,8 km/h (6 Bft) 97,87 %
29.01.2018 20:02 9,0 C 8,3 C 7,2 C 97 % 15 lf 1023,1 hPa 0,0 l/m 0 min 2 min 0 W/m 45,1 km/h (6 Bft) 95,74 %
29.01.2018 20:04 8,9 C 8,3 C 7,2 C 97 % 15 lf 1023,2 hPa 0,0 l/m 0 min 2 min 0 W/m 38,3 km/h (5 Bft) 100,00 %
29.01.2018 20:06 8,9 C 7,8 C 7,2 C 97 % 15 lf 1023,3 hPa 0,0 l/m 0 min 2 min 0 W/m 36,0 km/h (5 Bft) 100,00 %
29.01.2018 20:08 8,8 C 7,8 C 7,2 C 97 % 15 lf 1023,4 hPa 0,0 l/m 0 min 0 min 0 W/m 42,8 km/h (6 Bft) 100,00 %
29.01.2018 20:10 8,7 C 7,8 C 6,7 C 97 % 15 lf 1023,5 hPa 0,0 l/m 0 min 2 min 0 W/m 54,1 km/h (7 Bft) 100,00 %
29.01.2018 20:12 8,6 C 7,8 C 6,7 C 97 % 15 lf 1023,5 hPa 0,0 l/m 0 min 2 min 0 W/m 45,1 km/h (6 Bft) 97,87 %
29.01.2018 20:14 8,5 C 7,8 C 6,7 C 97 % 15 lf 1023,6 hPa 0,0 l/m 0 min 2 min 0 W/m 31,5 km/h (5 Bft) 100,00 %
29.01.2018 20:16 8,4 C 7,8 C 6,7 C 97 % 15 lf 1023,7 hPa 0,0 l/m 0 min 2 min 0 W/m 33,8 km/h (5 Bft) 100,00 %
29.01.2018 20:18 8,4 C 7,8 C 6,7 C 97 % 15 lf 1023,7 hPa 0,0 l/m 0 min 2 min 0 W/m 36,0 km/h (5 Bft) 100,00 %
29.01.2018 20:20 8,3 C 7,2 C 6,7 C 96 % 15 lf 1023,8 hPa 0,2 l/m 0 min 2 min 0 W/m 33,8 km/h (5 Bft) 100,00 %
29.01.2018 20:22 8,3 C 7,2 C 6,7 C 97 % 15 lf 1023,8 hPa 0,0 l/m 0 min 2 min 0 W/m 36,0 km/h (5 Bft) 100,00 %
29.01.2018 20:24 8,2 C 7,2 C 6,7 C 97 % 15 lf 1023,9 hPa 0,0 l/m 0 min 2 min 0 W/m 40,6 km/h (6 Bft) 97,87 %
29.01.2018 20:26 8,2 C 7,2 C 6,7 C 97 % 15 lf 1024,0 hPa 0,0 l/m 0 min 2 min 0 W/m 36,0 km/h (5 Bft) 100,00 %
29.01.2018 20:28 8,2 C 7,2 C 6,7 C 96 % 15 lf 1024,0 hPa 0,0 l/m 0 min 2 min 0 W/m 36,0 km/h (5 Bft) 97,87 %
29.01.2018 20:30 8,1 C 7,2 C 6,7 C 96 % 15 lf 1024,1 hPa 0,0 l/m 0 min 0 min 0 W/m 33,8 km/h (5 Bft) 100,00 %
29.01.2018 20:32 8,1 C 7,2 C 6,7 C 96 % 15 lf 1024,1 hPa 0,0 l/m 0 min 0 min 0 W/m 22,5 km/h (4 Bft) 100,00 %
29.01.2018 20:34 8,1 C 7,2 C 6,7 C 96 % 15 lf 1024,2 hPa 0,0 l/m 0 min 2 min 0 W/m 29,3 km/h (5 Bft) 97,87 %
29.01.2018 20:36 8,0 C 7,2 C 6,7 C 96 % 15 lf 1024,5 hPa 0,0 l/m 0 min 2 min 0 W/m 22,5 km/h (4 Bft) 93,62 %
29.01.2018 20:38 8,0 C 7,2 C 6,1 C 96 % 15 lf 1024,6 hPa 0,0 l/m 0 min 2 min 0 W/m 27,0 km/h (4 Bft) 100,00 %
29.01.2018 20:40 8,0 C 7,2 C 6,1 C 96 % 15 lf 1024,6 hPa 0,0 l/m 0 min 2 min 0 W/m 29,3 km/h (5 Bft) 100,00 %
29.01.2018 20:42 7,9 C 7,2 C 6,1 C 96 % 15 lf 1024,7 hPa 0,0 l/m 0 min 2 min 0 W/m 27,0 km/h (4 Bft) 95,74 %
29.01.2018 20:44 7,9 C 7,2 C 6,1 C 96 % 15 lf 1024,6 hPa 0,0 l/m 0 min 2 min 0 W/m 20,3 km/h (4 Bft) 97,87 %
29.01.2018 20:46 7,9 C 7,2 C 6,1 C 96 % 15 lf 1024,8 hPa 0,0 l/m 0 min 2 min 0 W/m 33,8 km/h (5 Bft) 97,87 %
29.01.2018 20:48 7,9 C 7,2 C 6,1 C 96 % 15 lf 1024,8 hPa 0,0 l/m 0 min 2 min 0 W/m 38,3 km/h (5 Bft) 93,62 %
29.01.2018 20:50 7,9 C 7,2 C 6,1 C 96 % 15 lf 1024,8 hPa 0,0 l/m 0 min 2 min 0 W/m 27,0 km/h (4 Bft) 95,74 %
29.01.2018 20:52 7,8 C 7,2 C 6,1 C 96 % 15 lf 1024,8 hPa 0,0 l/m 0 min 0 min 0 W/m 36,0 km/h (5 Bft) 95,65 %
29.01.2018 20:54 7,8 C 6,7 C 5,6 C 96 % 15 lf 1024,8 hPa 0,0 l/m 0 min 2 min 0 W/m 31,5 km/h (5 Bft) 95,74 %
29.01.2018 20:56 7,7 C 6,7 C 5,6 C 96 % 15 lf 1024,9 hPa 0,0 l/m 0 min 0 min 0 W/m 38,3 km/h (5 Bft) 95,74 %
29.01.2018 20:58 7,7 C 6,7 C 5,6 C 96 % 15 lf 1024,9 hPa 0,0 l/m 0 min 0 min 0 W/m 33,8 km/h (5 Bft) 93,62 %
29.01.2018 21:00 7,6 C 6,7 C 5,6 C 96 % 15 lf 1024,9 hPa 0,0 l/m 0 min 2 min 0 W/m 47,3 km/h (6 Bft) 89,36 %
29.01.2018 21:02 7,6 C 6,7 C 5,0 C 95 % 15 lf 1024,9 hPa 0,0 l/m 0 min 2 min 0 W/m 45,1 km/h (6 Bft) 91,49 %
29.01.2018 21:04 7,5 C 6,1 C 5,0 C 95 % 15 lf 1024,9 hPa 0,0 l/m 0 min 2 min 0 W/m 36,0 km/h (5 Bft) 89,13 %
29.01.2018 21:06 7,4 C 6,1 C 5,0 C 95 % 15 lf 1025,0 hPa 0,0 l/m 0 min 0 min 0 W/m 27,0 km/h (4 Bft) 91,49 %
29.01.2018 21:08 7,3 C 6,1 C 5,0 C 95 % 15 lf 1024,9 hPa 0,0 l/m 0 min 0 min 0 W/m 31,5 km/h (5 Bft) 91,49 %
29.01.2018 21:10 7,3 C 6,1 C 5,0 C 95 % 15 lf 1025,0 hPa 0,0 l/m 0 min 0 min 0 W/m 27,0 km/h (4 Bft) 87,23 %
29.01.2018 21:12 7,3 C 6,1 C 5,0 C 95 % 15 lf 1025,0 hPa 0,0 l/m 0 min 0 min 0 W/m 27,0 km/h (4 Bft) 91,49 %
29.01.2018 21:14 7,2 C 6,1 C 5,0 C 95 % 15 lf 1025,0 hPa 0,0 l/m 0 min 0 min 0 W/m 18,0 km/h (3 Bft) 91,49 %
29.01.2018 21:16 7,2 C 6,1 C 4,4 C 95 % 15 lf 1025,0 hPa 0,0 l/m 0 min 0 min 0 W/m 20,3 km/h (4 Bft) 91,30 %
29.01.2018 21:18 7,2 C 5,6 C 4,4 C 94 % 15 lf 1025,1 hPa 0,0 l/m 0 min 0 min 0 W/m 22,5 km/h (4 Bft) 89,36 %
29.01.2018 21:20 7,1 C 5,6 C 4,4 C 94 % 15 lf 1025,2 hPa 0,0 l/m 0 min 0 min 0 W/m 27,0 km/h (4 Bft) 89,36 %
29.01.2018 21:22 7,1 C 5,6 C 4,4 C 94 % 15 lf 1025,3 hPa 0,0 l/m 0 min 0 min 0 W/m 27,0 km/h (4 Bft) 89,36 %
29.01.2018 21:24 7,0 C 5,6 C 4,4 C 94 % 15 lf 1025,3 hPa 0,0 l/m 0 min 0 min 0 W/m 20,3 km/h (4 Bft) 91,49 %
29.01.2018 21:26 7,0 C 5,6 C 4,4 C 94 % 15 lf 1025,3 hPa 0,0 l/m 0 min 0 min 0 W/m 27,0 km/h (4 Bft) 91,49 %
29.01.2018 21:28 6,9 C 5,6 C 4,4 C 94 % 15 lf 1025,5 hPa 0,0 l/m 0 min 0 min 0 W/m 22,5 km/h (4 Bft) 86,96 %
29.01.2018 21:30 6,9 C 5,6 C 4,4 C 94 % 15 lf 1025,5 hPa 0,0 l/m 0 min 0 min 0 W/m 20,3 km/h (4 Bft) 89,36 %
29.01.2018 21:32 6,8 C 5,6 C 4,4 C 94 % 15 lf 1025,5 hPa 0,0 l/m 0 min 0 min 0 W/m 22,5 km/h (4 Bft) 91,49 %
29.01.2018 21:34 6,8 C 5,6 C 4,4 C 94 % 15 lf 1025,5 hPa 0,0 l/m 0 min 0 min 0 W/m 22,5 km/h (4 Bft) 93,62 %
29.01.2018 21:36 6,8 C 5,6 C 4,4 C 94 % 15 lf 1025,5 hPa 0,0 l/m 0 min 0 min 0 W/m 20,3 km/h (4 Bft) 93,62 %
29.01.2018 21:38 6,8 C 5,6 C 4,4 C 93 % 15 lf 1025,5 hPa 0,0 l/m 0 min 0 min 0 W/m 15,8 km/h (3 Bft) 95,74 %
29.01.2018 21:40 6,7 C 5,6 C 4,4 C 93 % 15 lf 1025,6 hPa 0,0 l/m 0 min 0 min 0 W/m 20,3 km/h (4 Bft) 95,65 %
29.01.2018 21:42 6,7 C 5,6 C 4,4 C 93 % 15 lf 1025,7 hPa 0,0 l/m 0 min 0 min 0 W/m 18,0 km/h (3 Bft) 97,87 %
29.01.2018 21:44 6,7 C 5,6 C 3,9 C 93 % 15 lf 1025,7 hPa 0,0 l/m 0 min 0 min 0 W/m 13,5 km/h (3 Bft) 95,74 %
29.01.2018 21:46 6,7 C 5,0 C 3,9 C 93 % 15 lf 1025,7 hPa 0,0 l/m 0 min 0 min 0 W/m 13,5 km/h (3 Bft) 95,74 %
29.01.2018 21:48 6,6 C 5,0 C 3,9 C 93 % 15 lf 1025,8 hPa 0,0 l/m 0 min 0 min 0 W/m 11,3 km/h (2 Bft) 97,87 %
29.01.2018 21:50 6,6 C 5,0 C 3,9 C 93 % 15 lf 1025,8 hPa 0,0 l/m 0 min 0 min 0 W/m 15,8 km/h (3 Bft) 95,74 %
29.01.2018 21:52 6,6 C 5,0 C 3,9 C 93 % 15 lf 1025,8 hPa 0,0 l/m 0 min 0 min 0 W/m 13,5 km/h (3 Bft) 97,83 %
29.01.2018 21:54 6,5 C 5,0 C 3,9 C 93 % 15 lf 1025,9 hPa 0,0 l/m 0 min 0 min 0 W/m 22,5 km/h (4 Bft) 97,87 %
29.01.2018 21:56 6,5 C 5,0 C 3,9 C 93 % 15 lf 1025,9 hPa 0,0 l/m 0 min 0 min 0 W/m 20,3 km/h (4 Bft) 97,87 %
29.01.2018 21:58 6,4 C 5,0 C 3,9 C 93 % 15 lf 1026,0 hPa 0,0 l/m 0 min 0 min 0 W/m 22,5 km/h (4 Bft) 97,87 %
29.01.2018 22:00 6,4 C 5,6 C 3,9 C 93 % 15 lf 1026,0 hPa 0,0 l/m 0 min 0 min 0 W/m 20,3 km/h (4 Bft) 97,87 %
29.01.2018 22:02 6,4 C 5,6 C 3,9 C 93 % 15 lf 1026,1 hPa 0,0 l/m 0 min 0 min 0 W/m 22,5 km/h (4 Bft) 97,87 %
29.01.2018 22:04 6,4 C 5,6 C 3,9 C 93 % 15 lf 1026,2 hPa 0,0 l/m 0 min 0 min 0 W/m 18,0 km/h (3 Bft) 97,87 %
29.01.2018 22:08 6,4 C 5,0 C 3,9 C 93 % 15 lf 1026,2 hPa 0,0 l/m 0 min 0 min 0 W/m 20,3 km/h (4 Bft) 96,67 %
29.01.2018 22:10 6,4 C 5,0 C 3,9 C 93 % 15 lf 1026,3 hPa 0,0 l/m 0 min 0 min 0 W/m 20,3 km/h (4 Bft) 100,00 %
29.01.2018 22:12 6,4 C 5,0 C 3,9 C 93 % 15 lf 1026,3 hPa 0,0 l/m 0 min 0 min 0 W/m 18,0 km/h (3 Bft) 100,00 %
29.01.2018 22:14 6,3 C 5,0 C 3,9 C 93 % 15 lf 1026,3 hPa 0,0 l/m 0 min 0 min 0 W/m 18,0 km/h (3 Bft) 100,00 %
29.01.2018 22:16 6,3 C 5,0 C 3,9 C 93 % 15 lf 1026,3 hPa 0,0 l/m 0 min 0 min 0 W/m 18,0 km/h (3 Bft) 95,74 %
29.01.2018 22:18 6,3 C 5,0 C 3,9 C 93 % 15 lf 1026,4 hPa 0,0 l/m 0 min 0 min 0 W/m 13,5 km/h (3 Bft) 97,87 %
29.01.2018 22:20 6,2 C 5,0 C 3,9 C 93 % 15 lf 1026,5 hPa 0,0 l/m 0 min 0 min 0 W/m 20,3 km/h (4 Bft) 100,00 %
29.01.2018 22:22 6,2 C 5,0 C 3,9 C 93 % 15 lf 1026,6 hPa 0,0 l/m 0 min 0 min 0 W/m 13,5 km/h (3 Bft) 94,29 %
29.01.2018 22:24 6,2 C 5,0 C 3,3 C 93 % 15 lf 1026,7 hPa 0,0 l/m 0 min 0 min 0 W/m 13,5 km/h (3 Bft) 100,00 %
29.01.2018 22:26 6,2 C 5,0 C 3,3 C 93 % 15 lf 1026,7 hPa 0,0 l/m 0 min 0 min 0 W/m 11,3 km/h (2 Bft) 100,00 %
29.01.2018 22:28 6,1 C 4,4 C 3,3 C 93 % 15 lf 1026,6 hPa 0,0 l/m 0 min 0 min 0 W/m 11,3 km/h (2 Bft) 100,00 %
29.01.2018 22:30 6,1 C 4,4 C 3,3 C 93 % 15 lf 1026,6 hPa 0,0 l/m 0 min 0 min 0 W/m 11,3 km/h (2 Bft) 100,00 %
29.01.2018 22:32 6,1 C 5,0 C 3,3 C 93 % 15 lf 1026,7 hPa 0,0 l/m 0 min 0 min 0 W/m 18,0 km/h (3 Bft) 100,00 %
29.01.2018 22:34 6,1 C 5,0 C 3,3 C 93 % 15 lf 1026,6 hPa 0,0 l/m 0 min 0 min 0 W/m 15,8 km/h (3 Bft) 100,00 %
29.01.2018 22:36 6,0 C 5,0 C 3,3 C 93 % 15 lf 1026,7 hPa 0,0 l/m 0 min 0 min 0 W/m 13,5 km/h (3 Bft) 100,00 %
29.01.2018 22:38 6,0 C 5,0 C 3,3 C 93 % 15 lf 1026,7 hPa 0,0 l/m 0 min 0 min 0 W/m 18,0 km/h (3 Bft) 100,00 %
29.01.2018 22:40 5,9 C 5,0 C 3,3 C 93 % 15 lf 1026,7 hPa 0,0 l/m 0 min 0 min 0 W/m 18,0 km/h (3 Bft) 95,74 %
29.01.2018 22:42 5,9 C 4,4 C 3,3 C 93 % 15 lf 1026,7 hPa 0,0 l/m 0 min 0 min 0 W/m 13,5 km/h (3 Bft) 100,00 %
29.01.2018 22:44 5,9 C 4,4 C 3,3 C 93 % 15 lf 1026,7 hPa 0,0 l/m 0 min 0 min 0 W/m 18,0 km/h (3 Bft) 100,00 %
29.01.2018 22:46 5,9 C 5,0 C 3,3 C 93 % 15 lf 1026,8 hPa 0,0 l/m 0 min 0 min 0 W/m 18,0 km/h (3 Bft) 91,49 %
29.01.2018 22:48 5,9 C 5,0 C 3,3 C 93 % 15 lf 1026,8 hPa 0,0 l/m 0 min 0 min 0 W/m 13,5 km/h (3 Bft) 100,00 %
29.01.2018 22:50 5,8 C 4,4 C 3,3 C 93 % 15 lf 1026,8 hPa 0,0 l/m 0 min 0 min 0 W/m 11,3 km/h (2 Bft) 100,00 %
29.01.2018 22:52 5,8 C 4,4 C 3,3 C 94 % 15 lf 1026,8 hPa 0,0 l/m 0 min 0 min 0 W/m 11,3 km/h (2 Bft) 94,29 %
29.01.2018 22:54 5,8 C 4,4 C 3,3 C 94 % 15 lf 1026,8 hPa 0,0 l/m 0 min 0 min 0 W/m 18,0 km/h (3 Bft) 93,62 %
29.01.2018 22:56 5,8 C 4,4 C 3,3 C 94 % 15 lf 1026,8 hPa 0,0 l/m 0 min 0 min 0 W/m 11,3 km/h (2 Bft) 97,87 %
29.01.2018 22:58 5,8 C 4,4 C 3,3 C 94 % 15 lf 1026,8 hPa 0,0 l/m 0 min 0 min 0 W/m 9,0 km/h (2 Bft) 97,87 %
29.01.2018 23:00 5,7 C 4,4 C 3,3 C 94 % 15 lf 1026,8 hPa 0,0 l/m 0 min 0 min 0 W/m 6,8 km/h (2 Bft) 97,87 %
29.01.2018 23:02 5,7 C 4,4 C 3,3 C 94 % 15 lf 1026,9 hPa 0,0 l/m 0 min 0 min 0 W/m 9,0 km/h (2 Bft) 97,83 %
29.01.2018 23:04 5,7 C 4,4 C 3,3 C 94 % 15 lf 1027,0 hPa 0,0 l/m 0 min 0 min 0 W/m 11,3 km/h (2 Bft) 95,74 %
29.01.2018 23:06 5,7 C 4,4 C 3,3 C 93 % 15 lf 1027,0 hPa 0,0 l/m 0 min 0 min 0 W/m 15,8 km/h (3 Bft) 97,92 %
29.01.2018 23:08 5,7 C 4,4 C 3,3 C 93 % 15 lf 1027,0 hPa 0,0 l/m 0 min 0 min 0 W/m 11,3 km/h (2 Bft) 97,87 %
29.01.2018 23:10 5,7 C 4,4 C 3,3 C 93 % 15 lf 1027,1 hPa 0,0 l/m 0 min 0 min 0 W/m 15,8 km/h (3 Bft) 97,87 %
29.01.2018 23:12 5,6 C 4,4 C 3,3 C 94 % 15 lf 1027,1 hPa 0,0 l/m 0 min 0 min 0 W/m 11,3 km/h (2 Bft) 97,83 %
29.01.2018 23:14 5,6 C 4,4 C 3,3 C 94 % 15 lf 1027,1 hPa 0,0 l/m 0 min 0 min 0 W/m 11,3 km/h (2 Bft) 97,87 %
29.01.2018 23:16 5,6 C 4,4 C 3,3 C 94 % 15 lf 1027,1 hPa 0,0 l/m 0 min 0 min 0 W/m 15,8 km/h (3 Bft) 95,74 %
29.01.2018 23:18 5,6 C 4,4 C 3,3 C 94 % 15 lf 1027,2 hPa 0,0 l/m 0 min 0 min 0 W/m 15,8 km/h (3 Bft) 97,87 %
29.01.2018 23:20 5,6 C 4,4 C 3,3 C 94 % 15 lf 1027,2 hPa 0,0 l/m 0 min 0 min 0 W/m 20,3 km/h (4 Bft) 98,28 %
29.01.2018 23:22 5,6 C 4,4 C 3,3 C 94 % 15 lf 1027,3 hPa 0,0 l/m 0 min 0 min 0 W/m 15,8 km/h (3 Bft) 97,22 %
29.01.2018 23:24 5,6 C 4,4 C 3,3 C 94 % 15 lf 1027,3 hPa 0,0 l/m 0 min 0 min 0 W/m 15,8 km/h (3 Bft) 100,00 %
29.01.2018 23:26 5,6 C 4,4 C 3,3 C 94 % 15 lf 1027,4 hPa 0,0 l/m 0 min 0 min 0 W/m 15,8 km/h (3 Bft) 97,87 %
29.01.2018 23:28 5,6 C 4,4 C 3,3 C 94 % 15 lf 1027,4 hPa 0,0 l/m 0 min 0 min 0 W/m 13,5 km/h (3 Bft) 95,74 %
29.01.2018 23:30 5,6 C 4,4 C 3,3 C 94 % 15 lf 1027,4 hPa 0,0 l/m 0 min 0 min 0 W/m 11,3 km/h (2 Bft) 97,87 %
29.01.2018 23:32 5,5 C 4,4 C 3,3 C 94 % 15 lf 1027,4 hPa 0,0 l/m 0 min 0 min 0 W/m 11,3 km/h (2 Bft) 97,87 %
29.01.2018 23:34 5,5 C 4,4 C 2,8 C 94 % 15 lf 1027,4 hPa 0,0 l/m 0 min 0 min 0 W/m 13,5 km/h (3 Bft) 100,00 %
29.01.2018 23:36 5,4 C 4,4 C 3,3 C 94 % 15 lf 1027,5 hPa 0,0 l/m 0 min 0 min 0 W/m 13,5 km/h (3 Bft) 97,83 %
29.01.2018 23:38 5,4 C 4,4 C 2,8 C 94 % 15 lf 1027,5 hPa 0,0 l/m 0 min 0 min 0 W/m 11,3 km/h (2 Bft) 97,87 %
29.01.2018 23:40 5,4 C 4,4 C 2,8 C 94 % 15 lf 1027,5 hPa 0,0 l/m 0 min 0 min 0 W/m 13,5 km/h (3 Bft) 97,87 %
29.01.2018 23:42 5,4 C 4,4 C 2,8 C 94 % 15 lf 1027,4 hPa 0,0 l/m 0 min 0 min 0 W/m 9,0 km/h (2 Bft) 95,74 %
29.01.2018 23:44 5,4 C 4,4 C 2,8 C 94 % 15 lf 1027,4 hPa 0,0 l/m 0 min 0 min 0 W/m 15,8 km/h (3 Bft) 93,62 %
29.01.2018 23:46 5,3 C 4,4 C 2,8 C 94 % 15 lf 1027,5 hPa 0,0 l/m 0 min 0 min 0 W/m 15,8 km/h (3 Bft) 93,62 %
29.01.2018 23:48 5,3 C 4,4 C 2,8 C 94 % 15 lf 1027,4 hPa 0,0 l/m 0 min 0 min 0 W/m 13,5 km/h (3 Bft) 93,48 %
29.01.2018 23:50 5,3 C 4,4 C 2,8 C 94 % 15 lf 1027,5 hPa 0,0 l/m 0 min 0 min 0 W/m 15,8 km/h (3 Bft) 95,74 %
29.01.2018 23:52 5,3 C 4,4 C 2,8 C 94 % 15 lf 1027,5 hPa 0,0 l/m 0 min 0 min 0 W/m 11,3 km/h (2 Bft) 95,74 %
29.01.2018 23:54 5,3 C 3,9 C 2,8 C 94 % 15 lf 1027,5 hPa 0,0 l/m 0 min 0 min 0 W/m 15,8 km/h (3 Bft) 93,62 %
29.01.2018 23:56 5,2 C 3,9 C 2,8 C 94 % 15 lf 1027,5 hPa 0,0 l/m 0 min 0 min 0 W/m 11,3 km/h (2 Bft) 95,74 %
29.01.2018 23:58 5,2 C 3,9 C 2,8 C 94 % 15 lf 1027,5 hPa 0,0 l/m 0 min 0 min 0 W/m 9,0 km/h (2 Bft) 91,30 %
_ Min-Zeit 23:56 23:54 23:34 12:38 00:00 16:46 - - - - 23:00 05:42
Minimum _ 5,2 C 3,9 C 2,8 C 84 % 0 lf 1021,3 hPa - - - - 6,8 km/h (2 Bft) 4,76 %
_ Max-Zeit 12:14 11:26 12:14 19:48 15:12 00:28 18:22 00:00 14:44 12:12 17:10 00:02
Maximum _ 10,4 C 10,6 C 10,0 C 97 % 15 lf 1029,2 hPa 0,2 l/m 0 min 2 min 95 W/m 60,8 km/h
W-SW (7 Bft)
100,00 %
Durchschnitt _ 9,4 C 9,0 C 7,9 C 90 % 4 lf 1025,3 hPa #2,2 l/m #0 min. #3:16 h 35 W/m 33,6 km/h (5 Bft) 96,00 %
© 2018 W. Hausmann